Wetterdaten: Sonntag, 08.08.2010
Datum Zeit Temp. Innen Temp. Aussen UV X Diff Temp. Feuchte Inne Feuchte Auss Sonnenschein Luftdruck Regen ab 0,1 Wind Sonnenschein T Regendauer Windben
08.08.2010 00:00 23,4 C 17,9 C 0,0 UV-I 0,0 C 57 % 87 % 0 % 1019,9 hPa 0,0 l/m 0,0 km/h (0 Bft) 0 min 2 min 0,0 km/h (0 Bft)
08.08.2010 00:02 23,4 C 17,9 C 0,0 UV-I 0,0 C 57 % 87 % 0 % 1019,9 hPa 0,0 l/m 0,0 km/h (0 Bft) 0 min 2 min 0,0 km/h (0 Bft)
08.08.2010 00:04 23,4 C 17,9 C 0,0 UV-I 0,0 C 57 % 87 % 0 % 1019,9 hPa 0,0 l/m 0,0 km/h (0 Bft) 0 min 2 min 0,0 km/h (0 Bft)
08.08.2010 00:06 23,4 C 17,8 C 0,0 UV-I 0,0 C 57 % 87 % 0 % 1019,9 hPa 0,0 l/m 0,4 km/h (0 Bft) 0 min 2 min 5,1 km/h (1 Bft)
08.08.2010 00:08 23,4 C 17,8 C 0,0 UV-I 0,0 C 57 % 87 % 0 % 1019,9 hPa 0,3 l/m 0,4 km/h (0 Bft) 0 min 2 min 0,0 km/h (0 Bft)
08.08.2010 00:10 23,4 C 17,7 C 0,0 UV-I 0,0 C 57 % 87 % 0 % 1019,3 hPa 0,0 l/m 0,4 km/h (0 Bft) 0 min 2 min 0,0 km/h (0 Bft)
08.08.2010 00:12 23,4 C 17,7 C 0,0 UV-I 0,0 C 57 % 87 % 0 % 1019,3 hPa 0,0 l/m 0,4 km/h (0 Bft) 0 min 2 min 0,0 km/h (0 Bft)
08.08.2010 00:16 23,4 C 17,7 C 0,0 UV-I 0,0 C 57 % 88 % 0 % 1019,3 hPa 0,0 l/m 0,4 km/h (0 Bft) 0 min 0 min 0,0 km/h (0 Bft)
08.08.2010 00:18 23,4 C 17,7 C 0,0 UV-I 0,0 C 57 % 88 % 0 % 1019,3 hPa 0,0 l/m 0,0 km/h (0 Bft) 0 min 0 min 0,0 km/h (0 Bft)
08.08.2010 00:20 23,4 C 17,7 C 0,0 UV-I 0,0 C 57 % 88 % 0 % 1019,3 hPa 0,0 l/m 0,0 km/h (0 Bft) 0 min 0 min 0,0 km/h (0 Bft)
08.08.2010 00:22 23,4 C 17,7 C 0,0 UV-I 0,0 C 57 % 88 % 0 % 1019,3 hPa 0,0 l/m 0,0 km/h (0 Bft) 0 min 0 min 0,0 km/h (0 Bft)
08.08.2010 00:24 23,4 C 17,7 C 0,0 UV-I 0,0 C 57 % 88 % 0 % 1019,3 hPa 0,0 l/m 0,0 km/h (0 Bft) 0 min 0 min 0,0 km/h (0 Bft)
08.08.2010 00:26 23,4 C 17,6 C 0,0 UV-I 0,0 C 57 % 88 % 0 % 1019,3 hPa 0,0 l/m 0,0 km/h (0 Bft) 0 min 0 min 0,0 km/h (0 Bft)
08.08.2010 00:28 23,4 C 17,7 C 0,0 UV-I 0,0 C 58 % 88 % 0 % 1019,3 hPa 0,0 l/m 0,0 km/h (0 Bft) 0 min 0 min 0,0 km/h (0 Bft)
08.08.2010 00:30 23,4 C 17,7 C 0,0 UV-I 0,0 C 58 % 88 % 0 % 1019,3 hPa 0,0 l/m 0,0 km/h (0 Bft) 0 min 0 min 0,0 km/h (0 Bft)
08.08.2010 00:34 23,4 C 17,6 C 0,0 UV-I 0,0 C 59 % 88 % 0 % 1019,3 hPa 0,0 l/m 0,0 km/h (0 Bft) 0 min 0 min 0,0 km/h (0 Bft)
08.08.2010 00:36 23,4 C 17,7 C 0,0 UV-I 0,0 C 59 % 89 % 0 % 1019,3 hPa 0,0 l/m 0,0 km/h (0 Bft) 0 min 0 min 0,0 km/h (0 Bft)
08.08.2010 00:38 23,4 C 17,7 C 0,0 UV-I 0,0 C 59 % 89 % 0 % 1019,3 hPa 0,0 l/m 0,0 km/h (0 Bft) 0 min 0 min 0,0 km/h (0 Bft)
08.08.2010 00:40 23,4 C 17,6 C 0,0 UV-I 0,0 C 59 % 89 % 0 % 1019,3 hPa 0,0 l/m 0,0 km/h (0 Bft) 0 min 0 min 0,0 km/h (0 Bft)
08.08.2010 00:42 23,4 C 17,6 C 0,0 UV-I 0,0 C 59 % 89 % 0 % 1019,3 hPa 0,0 l/m 0,0 km/h (0 Bft) 0 min 0 min 0,0 km/h (0 Bft)
08.08.2010 00:44 23,4 C 17,6 C 0,0 UV-I 0,0 C 59 % 89 % 0 % 1019,3 hPa 0,0 l/m 0,0 km/h (0 Bft) 0 min 0 min 0,0 km/h (0 Bft)
08.08.2010 00:46 23,4 C 17,6 C 0,0 UV-I 0,0 C 59 % 89 % 0 % 1019,3 hPa 0,0 l/m 0,0 km/h (0 Bft) 0 min 2 min 0,0 km/h (0 Bft)
08.08.2010 00:48 23,4 C 17,6 C 0,0 UV-I 0,0 C 60 % 89 % 0 % 1019,3 hPa 0,0 l/m 0,0 km/h (0 Bft) 0 min 2 min 0,0 km/h (0 Bft)
08.08.2010 00:50 23,4 C 17,6 C 0,0 UV-I 0,0 C 60 % 89 % 0 % 1019,5 hPa 0,1 l/m 0,0 km/h (0 Bft) 0 min 2 min 0,0 km/h (0 Bft)
08.08.2010 00:54 23,4 C 17,6 C 0,0 UV-I 0,0 C 59 % 89 % 0 % 1019,5 hPa 0,5 l/m 0,0 km/h (0 Bft) 0 min 2 min 0,0 km/h (0 Bft)
08.08.2010 00:56 23,4 C 17,5 C 0,0 UV-I 0,0 C 59 % 89 % 0 % 1019,5 hPa 0,0 l/m 0,0 km/h (0 Bft) 0 min 2 min 0,0 km/h (0 Bft)
08.08.2010 00:58 23,4 C 17,5 C 0,0 UV-I 0,0 C 59 % 89 % 0 % 1019,5 hPa 0,0 l/m 0,0 km/h (0 Bft) 0 min 2 min 0,0 km/h (0 Bft)
08.08.2010 01:00 23,2 C 17,5 C 0,0 UV-I 0,0 C 59 % 89 % 0 % 1019,5 hPa 0,0 l/m 0,0 km/h (0 Bft) 0 min 2 min 0,0 km/h (0 Bft)
08.08.2010 01:02 23,2 C 17,5 C 0,0 UV-I 0,0 C 59 % 89 % 0 % 1019,5 hPa 0,0 l/m 0,0 km/h (0 Bft) 0 min 2 min 0,0 km/h (0 Bft)
08.08.2010 01:04 23,2 C 17,5 C 0,0 UV-I 0,0 C 59 % 89 % 0 % 1019,5 hPa 0,1 l/m 0,0 km/h (0 Bft) 0 min 2 min 0,0 km/h (0 Bft)
08.08.2010 01:06 23,2 C 17,5 C 0,0 UV-I 0,0 C 59 % 89 % 0 % 1019,5 hPa 0,0 l/m 0,0 km/h (0 Bft) 0 min 2 min 0,0 km/h (0 Bft)
08.08.2010 01:08 23,4 C 17,5 C 0,0 UV-I 0,0 C 59 % 89 % 0 % 1019,5 hPa 0,0 l/m 0,0 km/h (0 Bft) 0 min 2 min 0,0 km/h (0 Bft)
08.08.2010 01:10 23,2 C 17,5 C 0,0 UV-I 0,0 C 59 % 89 % 0 % 1019,0 hPa 0,1 l/m 0,0 km/h (0 Bft) 0 min 2 min 0,0 km/h (0 Bft)
08.08.2010 01:12 23,2 C 17,5 C 0,0 UV-I 0,0 C 59 % 90 % 0 % 1019,0 hPa 0,0 l/m 0,0 km/h (0 Bft) 0 min 2 min 0,0 km/h (0 Bft)
08.08.2010 01:14 23,2 C 17,5 C 0,0 UV-I 0,0 C 59 % 90 % 0 % 1019,0 hPa 0,0 l/m 0,0 km/h (0 Bft) 0 min 2 min 0,0 km/h (0 Bft)
08.08.2010 01:16 23,2 C 17,4 C 0,0 UV-I 0,0 C 59 % 90 % 0 % 1019,0 hPa 0,0 l/m 0,0 km/h (0 Bft) 0 min 2 min 0,0 km/h (0 Bft)
08.08.2010 01:18 23,2 C 17,5 C 0,0 UV-I 0,0 C 59 % 90 % 0 % 1019,0 hPa 0,0 l/m 0,0 km/h (0 Bft) 0 min 2 min 0,0 km/h (0 Bft)
08.08.2010 01:22 23,2 C 17,4 C 0,0 UV-I 0,0 C 59 % 90 % 0 % 1019,0 hPa 0,0 l/m 0,0 km/h (0 Bft) 0 min 0 min 0,0 km/h (0 Bft)
08.08.2010 01:24 23,3 C 17,4 C 0,0 UV-I 0,0 C 59 % 90 % 0 % 1019,0 hPa 0,0 l/m 0,0 km/h (0 Bft) 0 min 0 min 0,0 km/h (0 Bft)
08.08.2010 01:28 23,3 C 17,3 C 0,0 UV-I 0,0 C 59 % 90 % 0 % 1019,0 hPa 0,0 l/m 0,0 km/h (0 Bft) 0 min 0 min 0,0 km/h (0 Bft)
08.08.2010 01:30 23,2 C 17,3 C 0,0 UV-I 0,0 C 59 % 90 % 0 % 1019,0 hPa 0,0 l/m 0,0 km/h (0 Bft) 0 min 0 min 0,0 km/h (0 Bft)
08.08.2010 01:32 23,3 C 17,3 C 0,0 UV-I 0,0 C 59 % 91 % 0 % 1019,0 hPa 0,0 l/m 0,0 km/h (0 Bft) 0 min 0 min 0,0 km/h (0 Bft)
08.08.2010 01:34 23,2 C 17,3 C 0,0 UV-I 0,0 C 59 % 91 % 0 % 1019,0 hPa 0,0 l/m 0,0 km/h (0 Bft) 0 min 0 min 0,0 km/h (0 Bft)
08.08.2010 01:36 23,3 C 17,3 C 0,0 UV-I 0,0 C 59 % 91 % 0 % 1019,0 hPa 0,0 l/m 0,0 km/h (0 Bft) 0 min 0 min 0,0 km/h (0 Bft)
08.08.2010 01:38 23,3 C 17,3 C 0,0 UV-I 0,0 C 59 % 91 % 0 % 1019,0 hPa 0,0 l/m 0,0 km/h (0 Bft) 0 min 0 min 0,0 km/h (0 Bft)
08.08.2010 01:40 23,2 C 17,2 C 0,0 UV-I 0,0 C 59 % 91 % 0 % 1019,0 hPa 0,0 l/m 0,0 km/h (0 Bft) 0 min 0 min 0,0 km/h (0 Bft)
08.08.2010 01:42 23,3 C 17,3 C 0,0 UV-I 0,0 C 59 % 91 % 0 % 1019,0 hPa 0,0 l/m 0,0 km/h (0 Bft) 0 min 0 min 0,0 km/h (0 Bft)
08.08.2010 01:44 23,2 C 17,2 C 0,0 UV-I 0,0 C 59 % 91 % 0 % 1019,0 hPa 0,0 l/m 0,0 km/h (0 Bft) 0 min 0 min 0,0 km/h (0 Bft)
08.08.2010 01:46 23,2 C 17,2 C 0,0 UV-I 0,0 C 59 % 91 % 0 % 1019,0 hPa 0,0 l/m 0,0 km/h (0 Bft) 0 min 0 min 0,0 km/h (0 Bft)
08.08.2010 01:48 23,2 C 17,2 C 0,0 UV-I 0,0 C 59 % 91 % 0 % 1019,0 hPa 0,0 l/m 0,0 km/h (0 Bft) 0 min 0 min 0,0 km/h (0 Bft)
08.08.2010 01:50 23,3 C 17,2 C 0,0 UV-I 0,0 C 59 % 91 % 0 % 1018,8 hPa 0,0 l/m 0,0 km/h (0 Bft) 0 min 0 min 0,0 km/h (0 Bft)
08.08.2010 01:52 23,3 C 17,2 C 0,0 UV-I 0,0 C 59 % 91 % 0 % 1018,8 hPa 0,0 l/m 0,0 km/h (0 Bft) 0 min 0 min 0,0 km/h (0 Bft)
08.08.2010 01:54 23,3 C 17,2 C 0,0 UV-I 0,0 C 59 % 91 % 0 % 1018,8 hPa 0,0 l/m 0,0 km/h (0 Bft) 0 min 0 min 0,0 km/h (0 Bft)
08.08.2010 01:58 23,3 C 17,2 C 0,0 UV-I 0,0 C 59 % 91 % 0 % 1018,8 hPa 0,0 l/m 0,0 km/h (0 Bft) 0 min 0 min 0,0 km/h (0 Bft)
08.08.2010 02:06 23,2 C 17,3 C 0,0 UV-I 0,0 C 60 % 91 % 0 % 1018,8 hPa 0,0 l/m 0,0 km/h (0 Bft) 0 min 0 min 0,0 km/h (0 Bft)
08.08.2010 02:08 23,2 C 17,3 C 0,0 UV-I 0,0 C 60 % 91 % 0 % 1018,9 hPa 0,0 l/m 0,0 km/h (0 Bft) 0 min 0 min 0,0 km/h (0 Bft)
08.08.2010 02:10 23,2 C 17,2 C 0,0 UV-I 0,0 C 61 % 92 % 0 % 1018,9 hPa 0,0 l/m 0,0 km/h (0 Bft) 0 min 0 min 0,0 km/h (0 Bft)
08.08.2010 02:12 23,2 C 17,2 C 0,0 UV-I 0,0 C 61 % 92 % 0 % 1018,9 hPa 0,0 l/m 0,0 km/h (0 Bft) 0 min 0 min 0,0 km/h (0 Bft)
08.08.2010 02:14 23,2 C 17,2 C 0,0 UV-I 0,0 C 61 % 92 % 0 % 1018,9 hPa 0,0 l/m 0,0 km/h (0 Bft) 0 min 0 min 0,0 km/h (0 Bft)
08.08.2010 02:18 23,2 C 17,2 C 0,0 UV-I 0,0 C 61 % 92 % 0 % 1018,9 hPa 0,0 l/m 0,0 km/h (0 Bft) 0 min 0 min 0,0 km/h (0 Bft)
08.08.2010 02:20 23,2 C 17,2 C 0,0 UV-I 0,0 C 61 % 92 % 0 % 1018,9 hPa 0,0 l/m 0,0 km/h (0 Bft) 0 min 0 min 0,0 km/h (0 Bft)
08.08.2010 02:22 23,2 C 17,1 C 0,0 UV-I 0,0 C 62 % 92 % 0 % 1018,9 hPa 0,0 l/m 0,0 km/h (0 Bft) 0 min 0 min 0,0 km/h (0 Bft)
08.08.2010 02:26 23,2 C 17,1 C 0,0 UV-I 0,0 C 62 % 92 % 0 % 1018,9 hPa 0,0 l/m 0,0 km/h (0 Bft) 0 min 0 min 0,0 km/h (0 Bft)
08.08.2010 02:28 23,2 C 17,1 C 0,0 UV-I 0,0 C 62 % 92 % 0 % 1019,0 hPa 0,0 l/m 0,0 km/h (0 Bft) 0 min 2 min 0,0 km/h (0 Bft)
08.08.2010 02:30 23,1 C 17,1 C 0,0 UV-I 0,0 C 62 % 92 % 0 % 1019,0 hPa 0,0 l/m 0,0 km/h (0 Bft) 0 min 2 min 0,0 km/h (0 Bft)
08.08.2010 02:32 23,2 C 17,1 C 0,0 UV-I 0,0 C 62 % 92 % 0 % 1019,0 hPa 0,0 l/m 0,0 km/h (0 Bft) 0 min 2 min 0,0 km/h (0 Bft)
08.08.2010 02:34 23,2 C 17,1 C 0,0 UV-I 0,0 C 62 % 92 % 0 % 1019,0 hPa 0,3 l/m 0,0 km/h (0 Bft) 0 min 2 min 0,0 km/h (0 Bft)
08.08.2010 02:36 23,2 C 17,1 C 0,0 UV-I 0,0 C 62 % 92 % 0 % 1019,0 hPa 0,0 l/m 0,0 km/h (0 Bft) 0 min 2 min 0,0 km/h (0 Bft)
08.08.2010 02:38 23,1 C 17,1 C 0,0 UV-I 0,0 C 62 % 92 % 0 % 1019,0 hPa 0,2 l/m 0,0 km/h (0 Bft) 0 min 2 min 0,0 km/h (0 Bft)
08.08.2010 02:40 23,1 C 17,1 C 0,0 UV-I 0,0 C 62 % 92 % 0 % 1019,0 hPa 0,2 l/m 0,4 km/h (0 Bft) 0 min 2 min 0,0 km/h (0 Bft)
08.08.2010 02:52 23,1 C 17,1 C 0,0 UV-I 0,0 C 63 % 92 % 0 % 1019,1 hPa 0,8 l/m 0,0 km/h (0 Bft) 0 min 2 min 4,8 km/h (1 Bft)
08.08.2010 02:56 23,0 C 17,1 C 0,0 UV-I 0,0 C 63 % 92 % 0 % 1019,1 hPa 0,4 l/m 0,4 km/h (0 Bft) 0 min 2 min 0,0 km/h (0 Bft)
08.08.2010 03:00 23,0 C 17,1 C 0,0 UV-I 0,0 C 63 % 92 % 0 % 1019,1 hPa 0,1 l/m 0,4 km/h (0 Bft) 0 min 2 min 0,0 km/h (0 Bft)
08.08.2010 03:04 23,0 C 17,1 C 0,0 UV-I 0,0 C 63 % 92 % 0 % 1019,1 hPa 0,0 l/m 0,0 km/h (0 Bft) 0 min 2 min 0,0 km/h (0 Bft)
08.08.2010 03:06 23,0 C 17,1 C 0,0 UV-I 0,0 C 63 % 92 % 0 % 1019,1 hPa 0,0 l/m 0,0 km/h (0 Bft) 0 min 2 min 0,0 km/h (0 Bft)
08.08.2010 03:10 23,0 C 17,1 C 0,0 UV-I 0,0 C 63 % 92 % 0 % 1018,9 hPa 0,1 l/m 0,0 km/h (0 Bft) 0 min 2 min 0,0 km/h (0 Bft)
08.08.2010 03:12 23,0 C 17,0 C 0,0 UV-I 0,0 C 63 % 92 % 0 % 1018,9 hPa 0,0 l/m 0,4 km/h (0 Bft) 0 min 2 min 0,0 km/h (0 Bft)
08.08.2010 03:17 23,0 C 17,0 C 0,0 UV-I 0,0 C 63 % 92 % 0 % 1018,9 hPa 0,0 l/m 0,0 km/h (0 Bft) 0 min 2 min 0,0 km/h (0 Bft)
08.08.2010 03:22 23,0 C 17,0 C 0,0 UV-I 0,0 C 63 % 93 % 0 % 1018,9 hPa 0,0 l/m 0,0 km/h (0 Bft) 0 min 2 min 0,0 km/h (0 Bft)
08.08.2010 03:26 23,0 C 17,0 C 0,0 UV-I 0,0 C 62 % 92 % 0 % 1018,9 hPa 0,0 l/m 0,0 km/h (0 Bft) 0 min 2 min 0,0 km/h (0 Bft)
08.08.2010 03:28 23,0 C 17,0 C 0,0 UV-I 0,0 C 62 % 93 % 0 % 1018,5 hPa 0,0 l/m 0,4 km/h (0 Bft) 0 min 2 min 5,1 km/h (1 Bft)
08.08.2010 03:30 23,0 C 17,0 C 0,0 UV-I 0,0 C 62 % 93 % 0 % 1018,5 hPa 0,0 l/m 0,4 km/h (0 Bft) 0 min 0 min 5,1 km/h (1 Bft)
08.08.2010 03:34 23,0 C 17,1 C 0,0 UV-I 0,0 C 62 % 93 % 0 % 1018,5 hPa 0,0 l/m 0,8 km/h (0 Bft) 0 min 0 min 3,2 km/h (1 Bft)
08.08.2010 03:38 23,0 C 17,1 C 0,0 UV-I 0,0 C 62 % 93 % 0 % 1018,5 hPa 0,0 l/m 0,4 km/h (0 Bft) 0 min 0 min 3,2 km/h (1 Bft)
08.08.2010 03:42 23,0 C 17,1 C 0,0 UV-I 0,0 C 62 % 93 % 0 % 1018,5 hPa 0,0 l/m 0,0 km/h (0 Bft) 0 min 0 min 0,0 km/h (0 Bft)
08.08.2010 03:44 23,0 C 17,0 C 0,0 UV-I 0,0 C 62 % 93 % 0 % 1018,5 hPa 0,0 l/m 0,0 km/h (0 Bft) 0 min 0 min 0,0 km/h (0 Bft)
08.08.2010 03:46 23,0 C 17,0 C 0,0 UV-I 0,0 C 62 % 93 % 0 % 1018,5 hPa 0,0 l/m 0,0 km/h (0 Bft) 0 min 0 min 0,0 km/h (0 Bft)
08.08.2010 03:50 23,0 C 16,9 C 0,0 UV-I 0,0 C 62 % 93 % 0 % 1018,4 hPa 0,0 l/m 0,0 km/h (0 Bft) 0 min 0 min 0,0 km/h (0 Bft)
08.08.2010 03:52 23,0 C 16,9 C 0,0 UV-I 0,0 C 62 % 93 % 0 % 1018,4 hPa 0,0 l/m 0,0 km/h (0 Bft) 0 min 0 min 0,0 km/h (0 Bft)
08.08.2010 03:56 23,0 C 16,9 C 0,0 UV-I 0,0 C 62 % 93 % 0 % 1018,4 hPa 0,0 l/m 0,0 km/h (0 Bft) 0 min 0 min 0,0 km/h (0 Bft)
08.08.2010 03:58 23,0 C 16,9 C 0,0 UV-I 0,0 C 62 % 93 % 0 % 1018,4 hPa 0,0 l/m 0,0 km/h (0 Bft) 0 min 0 min 0,0 km/h (0 Bft)
08.08.2010 04:02 23,0 C 16,9 C 0,0 UV-I 0,0 C 62 % 93 % 0 % 1018,4 hPa 0,0 l/m 0,0 km/h (0 Bft) 0 min 0 min 0,0 km/h (0 Bft)
08.08.2010 04:06 23,0 C 16,9 C 0,0 UV-I 0,0 C 62 % 93 % 0 % 1018,4 hPa 0,0 l/m 0,0 km/h (0 Bft) 0 min 0 min 0,0 km/h (0 Bft)
08.08.2010 04:08 23,0 C 16,9 C 0,0 UV-I 0,0 C 62 % 93 % 0 % 1018,3 hPa 0,0 l/m 0,0 km/h (0 Bft) 0 min 0 min 0,0 km/h (0 Bft)
08.08.2010 04:12 23,0 C 16,9 C 0,0 UV-I 0,0 C 62 % 93 % 0 % 1018,3 hPa 0,0 l/m 0,0 km/h (0 Bft) 0 min 0 min 0,0 km/h (0 Bft)
08.08.2010 04:14 23,0 C 16,9 C 0,0 UV-I 0,0 C 62 % 93 % 0 % 1018,3 hPa 0,0 l/m 0,0 km/h (0 Bft) 0 min 0 min 0,0 km/h (0 Bft)
08.08.2010 04:16 23,0 C 16,9 C 0,0 UV-I 0,0 C 62 % 93 % 0 % 1018,3 hPa 0,0 l/m 0,0 km/h (0 Bft) 0 min 0 min 0,0 km/h (0 Bft)
08.08.2010 04:26 23,0 C 16,8 C 0,0 UV-I 0,0 C 62 % 93 % 0 % 1018,3 hPa 0,0 l/m 0,0 km/h (0 Bft) 0 min 0 min 0,0 km/h (0 Bft)
08.08.2010 04:27 23,0 C 16,8 C 0,0 UV-I 0,0 C 62 % 93 % 0 % 1018,3 hPa 0,0 l/m 0,0 km/h (0 Bft) 0 min 0 min 0,0 km/h (0 Bft)
08.08.2010 04:32 23,0 C 16,8 C 0,0 UV-I 0,0 C 63 % 93 % 0 % 1018,2 hPa 0,0 l/m 0,0 km/h (0 Bft) 0 min 0 min 0,0 km/h (0 Bft)
08.08.2010 04:37 23,0 C 16,9 C 0,0 UV-I 0,0 C 62 % 93 % 0 % 1018,2 hPa 0,0 l/m 0,0 km/h (0 Bft) 0 min 0 min 0,0 km/h (0 Bft)
08.08.2010 04:42 23,0 C 16,9 C 0,0 UV-I 0,0 C 63 % 93 % 0 % 1018,2 hPa 0,0 l/m 0,0 km/h (0 Bft) 0 min 0 min 0,0 km/h (0 Bft)
08.08.2010 04:47 23,0 C 16,9 C 0,0 UV-I 0,0 C 63 % 93 % 0 % 1018,2 hPa 0,0 l/m 0,0 km/h (0 Bft) 0 min 0 min 0,0 km/h (0 Bft)
08.08.2010 04:52 23,0 C 16,9 C 0,0 UV-I 0,0 C 62 % 93 % 0 % 1017,9 hPa 0,0 l/m 0,0 km/h (0 Bft) 0 min 0 min 0,0 km/h (0 Bft)
08.08.2010 04:57 23,0 C 16,9 C 0,0 UV-I 0,0 C 63 % 93 % 0 % 1017,9 hPa 0,0 l/m 0,0 km/h (0 Bft) 0 min 0 min 0,0 km/h (0 Bft)
08.08.2010 05:02 23,0 C 17,0 C 0,0 UV-I 0,0 C 63 % 93 % 0 % 1017,9 hPa 0,0 l/m 0,0 km/h (0 Bft) 0 min 0 min 0,0 km/h (0 Bft)
08.08.2010 05:07 23,0 C 17,1 C 0,0 UV-I 0,0 C 62 % 93 % 0 % 1017,9 hPa 0,0 l/m 0,0 km/h (0 Bft) 0 min 0 min 0,0 km/h (0 Bft)
08.08.2010 05:12 23,0 C 17,0 C 0,0 UV-I 0,0 C 63 % 94 % 0 % 1017,8 hPa 0,0 l/m 0,0 km/h (0 Bft) 0 min 0 min 0,0 km/h (0 Bft)
08.08.2010 05:17 23,0 C 17,1 C 0,0 UV-I 0,0 C 63 % 94 % 0 % 1017,8 hPa 0,0 l/m 0,0 km/h (0 Bft) 0 min 0 min 0,0 km/h (0 Bft)
08.08.2010 05:22 23,0 C 17,1 C 0,0 UV-I 0,0 C 62 % 94 % 0 % 1017,8 hPa 0,0 l/m 0,0 km/h (0 Bft) 0 min 0 min 0,0 km/h (0 Bft)
08.08.2010 05:27 23,0 C 17,1 C 0,0 UV-I 0,0 C 62 % 94 % 0 % 1017,8 hPa 0,0 l/m 0,0 km/h (0 Bft) 0 min 0 min 0,0 km/h (0 Bft)
08.08.2010 05:32 23,0 C 17,1 C 0,0 UV-I 0,0 C 62 % 94 % 0 % 1017,6 hPa 0,0 l/m 0,0 km/h (0 Bft) 0 min 0 min 0,0 km/h (0 Bft)
08.08.2010 05:37 23,0 C 17,1 C 0,0 UV-I 0,0 C 62 % 94 % 0 % 1017,6 hPa 0,0 l/m 0,0 km/h (0 Bft) 0 min 0 min 0,0 km/h (0 Bft)
08.08.2010 05:42 23,0 C 17,1 C 0,0 UV-I 0,0 C 62 % 94 % 0 % 1017,6 hPa 0,0 l/m 0,0 km/h (0 Bft) 0 min 0 min 0,0 km/h (0 Bft)
08.08.2010 05:47 23,0 C 17,1 C 0,0 UV-I 0,0 C 62 % 94 % 0 % 1017,6 hPa 0,0 l/m 0,0 km/h (0 Bft) 0 min 0 min 0,0 km/h (0 Bft)
08.08.2010 05:52 23,0 C 17,1 C 0,0 UV-I 0,0 C 62 % 94 % 0 % 1017,6 hPa 0,0 l/m 0,0 km/h (0 Bft) 0 min 0 min 0,0 km/h (0 Bft)
08.08.2010 05:57 23,0 C 17,1 C 0,0 UV-I 0,0 C 63 % 94 % 0 % 1017,6 hPa 0,0 l/m 0,0 km/h (0 Bft) 0 min 0 min 0,0 km/h (0 Bft)
08.08.2010 06:02 23,0 C 17,1 C 0,0 UV-I 0,0 C 62 % 94 % 0 % 1017,6 hPa 0,0 l/m 0,0 km/h (0 Bft) 0 min 0 min 0,0 km/h (0 Bft)
08.08.2010 06:07 23,0 C 17,1 C 0,0 UV-I 0,0 C 63 % 94 % 0 % 1017,6 hPa 0,0 l/m 0,0 km/h (0 Bft) 0 min 0 min 0,0 km/h (0 Bft)
08.08.2010 06:12 23,0 C 17,1 C 0,0 UV-I 0,0 C 63 % 94 % 0 % 1017,6 hPa 0,0 l/m 0,0 km/h (0 Bft) 0 min 0 min 0,0 km/h (0 Bft)
08.08.2010 06:17 23,0 C 17,1 C 0,0 UV-I 0,0 C 63 % 94 % 0 % 1017,6 hPa 0,0 l/m 0,0 km/h (0 Bft) 0 min 0 min 0,0 km/h (0 Bft)
08.08.2010 06:22 23,0 C 16,9 C 0,0 UV-I 0,0 C 63 % 94 % 0 % 1017,6 hPa 0,0 l/m 0,0 km/h (0 Bft) 0 min 0 min 0,0 km/h (0 Bft)
08.08.2010 06:27 23,0 C 16,9 C 0,0 UV-I 0,0 C 63 % 94 % 0 % 1017,6 hPa 0,0 l/m 0,0 km/h (0 Bft) 0 min 0 min 0,0 km/h (0 Bft)
08.08.2010 06:32 23,0 C 17,0 C 0,0 UV-I 0,0 C 63 % 94 % 0 % 1017,3 hPa 0,0 l/m 0,0 km/h (0 Bft) 0 min 2 min 0,0 km/h (0 Bft)
08.08.2010 06:37 23,0 C 17,0 C 0,0 UV-I 0,0 C 63 % 94 % 0 % 1017,3 hPa 0,0 l/m 0,0 km/h (0 Bft) 0 min 0 min 0,0 km/h (0 Bft)
08.08.2010 06:42 23,0 C 17,1 C 0,0 UV-I 0,0 C 63 % 94 % 0 % 1017,3 hPa 0,4 l/m 0,0 km/h (0 Bft) 0 min 2 min 0,0 km/h (0 Bft)
08.08.2010 06:47 23,0 C 17,1 C 0,0 UV-I 0,0 C 64 % 94 % 0 % 1017,3 hPa 0,6 l/m 0,0 km/h (0 Bft) 0 min 2 min 0,0 km/h (0 Bft)
08.08.2010 06:52 23,0 C 17,0 C 0,0 UV-I 0,0 C 64 % 94 % 0 % 1017,4 hPa 1,7 l/m 0,0 km/h (0 Bft) 0 min 2 min 0,0 km/h (0 Bft)
08.08.2010 06:54 23,0 C 17,0 C 0,0 UV-I 0,0 C 64 % 94 % 0 % 1017,4 hPa 0,0 l/m 0,0 km/h (0 Bft) 0 min 2 min 0,0 km/h (0 Bft)
08.08.2010 06:56 22,9 C 17,0 C 0,0 UV-I 0,0 C 64 % 94 % 0 % 1017,4 hPa 0,8 l/m 0,4 km/h (0 Bft) 0 min 0 min 3,9 km/h (1 Bft)
08.08.2010 06:58 22,9 C 16,9 C 0,0 UV-I 0,0 C 64 % 94 % 0 % 1017,4 hPa 0,0 l/m 0,4 km/h (0 Bft) 0 min 2 min 3,9 km/h (1 Bft)
08.08.2010 07:00 22,9 C 17,0 C 0,0 UV-I 0,0 C 64 % 94 % 0 % 1017,4 hPa 0,8 l/m 0,8 km/h (0 Bft) 0 min 2 min 5,1 km/h (1 Bft)
08.08.2010 07:02 22,9 C 16,9 C 0,0 UV-I 0,0 C 64 % 94 % 0 % 1017,4 hPa 1,3 l/m 1,2 km/h (1 Bft) 0 min 0 min 0,0 km/h (0 Bft)
08.08.2010 07:04 22,9 C 16,9 C 0,0 UV-I 0,0 C 64 % 94 % 0 % 1017,4 hPa 0,7 l/m 2,0 km/h (1 Bft) 0 min 2 min 9,3 km/h (2 Bft)
08.08.2010 07:06 22,8 C 16,9 C 0,0 UV-I 0,0 C 64 % 94 % 0 % 1017,4 hPa 0,9 l/m 2,0 km/h (1 Bft) 0 min 2 min 3,9 km/h (1 Bft)
08.08.2010 07:08 22,8 C 16,9 C 0,0 UV-I 0,0 C 64 % 94 % 0 % 1017,4 hPa 0,0 l/m 2,0 km/h (1 Bft) 0 min 2 min 0,0 km/h (0 Bft)
08.08.2010 07:10 22,8 C 16,9 C 0,0 UV-I 0,0 C 64 % 94 % 0 % 1017,8 hPa 0,0 l/m 2,0 km/h (1 Bft) 0 min 2 min 6,4 km/h (2 Bft)
08.08.2010 07:12 22,8 C 16,8 C 0,0 UV-I 0,0 C 64 % 94 % 0 % 1017,8 hPa 0,7 l/m 3,2 km/h (1 Bft) 0 min 2 min 9,7 km/h (2 Bft)
08.08.2010 07:14 22,8 C 16,9 C 0,0 UV-I 0,0 C 64 % 94 % 0 % 1017,8 hPa 0,3 l/m 3,6 km/h (1 Bft) 0 min 2 min 9,7 km/h (2 Bft)
08.08.2010 07:16 22,8 C 16,8 C 0,0 UV-I 0,0 C 64 % 94 % 0 % 1017,8 hPa 0,2 l/m 4,8 km/h (1 Bft) 0 min 2 min 4,2 km/h (1 Bft)
08.08.2010 07:18 22,8 C 16,8 C 0,0 UV-I 0,0 C 64 % 94 % 0 % 1017,8 hPa 0,3 l/m 5,2 km/h (1 Bft) 0 min 2 min 4,2 km/h (1 Bft)
08.08.2010 07:20 22,8 C 16,7 C 0,0 UV-I 0,0 C 64 % 94 % 0 % 1017,8 hPa 0,0 l/m 4,4 km/h (1 Bft) 0 min 2 min 3,9 km/h (1 Bft)
08.08.2010 07:22 22,8 C 16,7 C 0,0 UV-I 0,0 C 64 % 94 % 0 % 1017,8 hPa 0,3 l/m 4,0 km/h (1 Bft) 0 min 2 min 3,9 km/h (1 Bft)
08.08.2010 07:24 22,7 C 16,7 C 0,0 UV-I 0,0 C 64 % 94 % 0 % 1017,8 hPa 0,0 l/m 4,0 km/h (1 Bft) 0 min 2 min 12,2 km/h (2 Bft)
08.08.2010 07:26 22,7 C 16,7 C 0,0 UV-I 0,0 C 64 % 94 % 0 % 1017,8 hPa 0,1 l/m 3,2 km/h (1 Bft) 0 min 2 min 0,0 km/h (0 Bft)
08.08.2010 07:28 22,7 C 16,6 C 0,0 UV-I 0,0 C 64 % 94 % 0 % 1017,8 hPa 0,0 l/m 3,2 km/h (1 Bft) 0 min 2 min 7,7 km/h (2 Bft)
08.08.2010 07:30 22,7 C 16,7 C 0,0 UV-I 0,0 C 64 % 94 % 0 % 1017,5 hPa 0,1 l/m 3,2 km/h (1 Bft) 0 min 2 min 3,9 km/h (1 Bft)
08.08.2010 07:32 22,7 C 16,6 C 0,0 UV-I 0,0 C 64 % 94 % 0 % 1017,5 hPa 0,1 l/m 3,6 km/h (1 Bft) 0 min 2 min 5,1 km/h (1 Bft)
08.08.2010 07:34 22,7 C 16,6 C 0,0 UV-I 0,0 C 64 % 94 % 0 % 1017,5 hPa 0,0 l/m 3,6 km/h (1 Bft) 0 min 2 min 4,5 km/h (1 Bft)
08.08.2010 07:36 22,7 C 16,5 C 0,0 UV-I 0,0 C 64 % 94 % 0 % 1017,5 hPa 0,0 l/m 4,0 km/h (1 Bft) 0 min 2 min 4,8 km/h (1 Bft)
08.08.2010 07:38 22,6 C 16,5 C 0,0 UV-I 0,0 C 64 % 94 % 0 % 1017,5 hPa 0,0 l/m 4,8 km/h (1 Bft) 0 min 2 min 5,5 km/h (1 Bft)
08.08.2010 07:40 22,6 C 16,5 C 0,0 UV-I 0,0 C 64 % 94 % 0 % 1017,5 hPa 0,0 l/m 4,4 km/h (1 Bft) 0 min 2 min 0,0 km/h (0 Bft)
08.08.2010 07:42 22,6 C 16,4 C 0,1 UV-I 0,0 C 64 % 94 % 0 % 1017,5 hPa 0,1 l/m 4,8 km/h (1 Bft) 0 min 2 min 5,5 km/h (1 Bft)
08.08.2010 07:44 22,6 C 16,4 C 0,1 UV-I 0,0 C 64 % 94 % 0 % 1017,5 hPa 0,1 l/m 4,0 km/h (1 Bft) 0 min 2 min 14,2 km/h (3 Bft)
08.08.2010 07:46 22,6 C 16,4 C 0,1 UV-I 0,0 C 64 % 94 % 0 % 1017,5 hPa 0,0 l/m 3,6 km/h (1 Bft) 0 min 2 min 0,0 km/h (0 Bft)
08.08.2010 07:48 22,6 C 16,4 C 0,1 UV-I 0,0 C 64 % 94 % 0 % 1017,5 hPa 0,0 l/m 2,8 km/h (1 Bft) 0 min 2 min 4,2 km/h (1 Bft)
08.08.2010 07:50 22,6 C 16,4 C 0,1 UV-I 0,0 C 64 % 94 % 0 % 1017,8 hPa 0,1 l/m 1,6 km/h (1 Bft) 0 min 2 min 0,0 km/h (0 Bft)
08.08.2010 07:54 22,6 C 16,4 C 0,2 UV-I 0,0 C 64 % 94 % 0 % 1017,8 hPa 0,1 l/m 0,8 km/h (0 Bft) 0 min 2 min 0,0 km/h (0 Bft)
08.08.2010 07:56 22,6 C 16,4 C 0,2 UV-I 0,0 C 64 % 94 % 0 % 1017,8 hPa 0,0 l/m 0,8 km/h (0 Bft) 0 min 2 min 0,0 km/h (0 Bft)
08.08.2010 07:58 22,6 C 16,4 C 0,3 UV-I 0,0 C 64 % 94 % 0 % 1017,8 hPa 0,0 l/m 0,8 km/h (0 Bft) 0 min 2 min 0,0 km/h (0 Bft)
08.08.2010 08:00 22,6 C 16,4 C 0,3 UV-I 0,0 C 64 % 94 % 0 % 1017,8 hPa 0,0 l/m 0,8 km/h (0 Bft) 0 min 2 min 0,0 km/h (0 Bft)
08.08.2010 08:02 22,6 C 16,4 C 0,3 UV-I 0,0 C 64 % 94 % 0 % 1017,8 hPa 0,0 l/m 0,8 km/h (0 Bft) 0 min 2 min 0,0 km/h (0 Bft)
08.08.2010 08:04 22,6 C 16,4 C 0,3 UV-I 0,0 C 64 % 94 % 0 % 1017,8 hPa 0,0 l/m 0,8 km/h (0 Bft) 0 min 0 min 0,0 km/h (0 Bft)
08.08.2010 08:06 22,6 C 16,4 C 0,3 UV-I 0,0 C 64 % 94 % 0 % 1017,8 hPa 0,0 l/m 0,8 km/h (0 Bft) 0 min 0 min 0,0 km/h (0 Bft)
08.08.2010 08:08 22,6 C 16,4 C 0,2 UV-I 0,0 C 64 % 94 % 0 % 1017,8 hPa 0,0 l/m 0,4 km/h (0 Bft) 0 min 0 min 0,0 km/h (0 Bft)
08.08.2010 08:10 22,6 C 16,3 C 0,2 UV-I 0,0 C 64 % 94 % 0 % 1017,9 hPa 0,0 l/m 0,4 km/h (0 Bft) 0 min 0 min 0,0 km/h (0 Bft)
08.08.2010 08:12 22,6 C 16,4 C 0,2 UV-I 0,0 C 64 % 94 % 0 % 1017,9 hPa 0,0 l/m 0,0 km/h (0 Bft) 0 min 0 min 0,0 km/h (0 Bft)
08.08.2010 08:14 22,6 C 16,4 C 0,2 UV-I 0,0 C 64 % 94 % 0 % 1017,9 hPa 0,0 l/m 0,0 km/h (0 Bft) 0 min 0 min 0,0 km/h (0 Bft)
08.08.2010 08:16 22,6 C 16,5 C 0,2 UV-I 0,0 C 64 % 94 % 0 % 1017,9 hPa 0,0 l/m 0,4 km/h (0 Bft) 0 min 0 min 0,0 km/h (0 Bft)
08.08.2010 08:18 22,6 C 16,5 C 0,1 UV-I 0,0 C 64 % 94 % 0 % 1017,9 hPa 0,0 l/m 0,4 km/h (0 Bft) 0 min 0 min 0,0 km/h (0 Bft)
08.08.2010 08:20 22,6 C 16,5 C 0,1 UV-I 0,0 C 64 % 94 % 0 % 1017,9 hPa 0,0 l/m 0,4 km/h (0 Bft) 0 min 0 min 0,0 km/h (0 Bft)
08.08.2010 08:22 22,6 C 16,5 C 0,1 UV-I 0,0 C 64 % 94 % 0 % 1017,9 hPa 0,0 l/m 0,8 km/h (0 Bft) 0 min 0 min 3,2 km/h (1 Bft)
08.08.2010 08:24 22,6 C 16,4 C 0,1 UV-I 0,0 C 64 % 94 % 0 % 1017,9 hPa 0,0 l/m 1,2 km/h (1 Bft) 0 min 0 min 3,2 km/h (1 Bft)
08.08.2010 08:26 22,6 C 16,3 C 0,1 UV-I 0,0 C 64 % 94 % 0 % 1017,9 hPa 0,0 l/m 1,2 km/h (1 Bft) 0 min 0 min 5,8 km/h (2 Bft)
08.08.2010 08:28 22,6 C 16,3 C 0,1 UV-I 0,0 C 64 % 94 % 0 % 1017,9 hPa 0,0 l/m 2,0 km/h (1 Bft) 0 min 0 min 5,8 km/h (2 Bft)
08.08.2010 08:30 22,6 C 16,3 C 0,1 UV-I 0,0 C 64 % 94 % 0 % 1018,0 hPa 0,0 l/m 2,4 km/h (1 Bft) 0 min 0 min 0,0 km/h (0 Bft)
08.08.2010 08:32 22,6 C 16,2 C 0,2 UV-I 0,0 C 64 % 94 % 0 % 1018,0 hPa 0,0 l/m 2,8 km/h (1 Bft) 0 min 0 min 0,0 km/h (0 Bft)
08.08.2010 08:34 22,6 C 16,3 C 0,2 UV-I 0,0 C 64 % 94 % 0 % 1018,0 hPa 0,0 l/m 2,8 km/h (1 Bft) 0 min 0 min 8,7 km/h (2 Bft)
08.08.2010 08:36 22,6 C 16,2 C 0,2 UV-I 0,0 C 64 % 94 % 0 % 1018,0 hPa 0,0 l/m 3,2 km/h (1 Bft) 0 min 0 min 8,7 km/h (2 Bft)
08.08.2010 08:38 22,6 C 16,2 C 0,3 UV-I 0,0 C 64 % 94 % 0 % 1018,0 hPa 0,0 l/m 2,8 km/h (1 Bft) 0 min 0 min 4,8 km/h (1 Bft)
08.08.2010 08:40 22,6 C 16,1 C 0,3 UV-I 0,0 C 64 % 94 % 0 % 1018,0 hPa 0,0 l/m 2,8 km/h (1 Bft) 0 min 0 min 4,8 km/h (1 Bft)
08.08.2010 08:42 22,6 C 16,1 C 0,3 UV-I 0,0 C 64 % 94 % 0 % 1018,0 hPa 0,0 l/m 2,8 km/h (1 Bft) 0 min 0 min 3,2 km/h (1 Bft)
08.08.2010 08:44 22,6 C 16,1 C 0,3 UV-I 0,0 C 64 % 94 % 0 % 1018,0 hPa 0,0 l/m 2,4 km/h (1 Bft) 0 min 0 min 0,0 km/h (0 Bft)
08.08.2010 08:46 22,6 C 16,1 C 0,3 UV-I 0,0 C 64 % 94 % 0 % 1018,0 hPa 0,0 l/m 1,2 km/h (1 Bft) 0 min 0 min 0,0 km/h (0 Bft)
08.08.2010 08:48 22,5 C 16,1 C 0,6 UV-I 0,0 C 64 % 94 % 0 % 1018,0 hPa 0,0 l/m 0,8 km/h (0 Bft) 0 min 0 min 0,0 km/h (0 Bft)
08.08.2010 08:50 22,6 C 16,1 C 0,6 UV-I 0,0 C 64 % 94 % 0 % 1018,1 hPa 0,0 l/m 0,8 km/h (0 Bft) 0 min 0 min 0,0 km/h (0 Bft)
08.08.2010 08:52 22,5 C 16,1 C 0,7 UV-I 0,0 C 64 % 94 % 0 % 1018,1 hPa 0,0 l/m 0,8 km/h (0 Bft) 0 min 0 min 0,0 km/h (0 Bft)
08.08.2010 08:54 22,6 C 16,1 C 0,7 UV-I 0,0 C 64 % 94 % 0 % 1018,1 hPa 0,0 l/m 0,4 km/h (0 Bft) 0 min 0 min 3,2 km/h (1 Bft)
08.08.2010 08:56 22,6 C 16,1 C 0,7 UV-I 0,0 C 64 % 94 % 0 % 1018,1 hPa 0,0 l/m 1,6 km/h (1 Bft) 0 min 0 min 0,0 km/h (0 Bft)
08.08.2010 09:00 22,5 C 16,0 C 0,8 UV-I 0,0 C 64 % 94 % 0 % 1018,1 hPa 0,0 l/m 1,6 km/h (1 Bft) 0 min 0 min 3,2 km/h (1 Bft)
08.08.2010 09:02 22,5 C 16,0 C 1,0 UV-I 0,1 C 64 % 94 % 3 % 1018,1 hPa 0,0 l/m 2,0 km/h (1 Bft) 0 min 0 min 0,0 km/h (0 Bft)
08.08.2010 09:04 22,6 C 16,0 C 1,0 UV-I 0,1 C 64 % 94 % 3 % 1018,1 hPa 0,0 l/m 1,2 km/h (1 Bft) 0 min 0 min 3,5 km/h (1 Bft)
08.08.2010 09:08 22,6 C 16,0 C 1,2 UV-I 0,3 C 64 % 94 % 9 % 1018,1 hPa 0,0 l/m 0,8 km/h (0 Bft) 0 min 0 min 0,0 km/h (0 Bft)
08.08.2010 09:10 22,6 C 16,1 C 1,2 UV-I 0,3 C 64 % 94 % 9 % 1018,6 hPa 0,0 l/m 0,8 km/h (0 Bft) 0 min 2 min 3,9 km/h (1 Bft)
08.08.2010 09:12 22,6 C 16,1 C 0,9 UV-I 0,4 C 64 % 94 % 11 % 1018,6 hPa 0,0 l/m 0,4 km/h (0 Bft) 0 min 2 min 0,0 km/h (0 Bft)
08.08.2010 09:14 22,5 C 16,2 C 0,9 UV-I 0,3 C 64 % 94 % 9 % 1018,6 hPa 0,0 l/m 0,4 km/h (0 Bft) 0 min 2 min 0,0 km/h (0 Bft)
08.08.2010 09:16 22,6 C 16,2 C 0,9 UV-I 0,4 C 64 % 94 % 11 % 1018,6 hPa 0,0 l/m 0,8 km/h (0 Bft) 0 min 2 min 3,9 km/h (1 Bft)
08.08.2010 09:18 22,6 C 16,2 C 1,2 UV-I 0,4 C 64 % 94 % 11 % 1018,6 hPa 0,0 l/m 0,8 km/h (0 Bft) 0 min 2 min 0,0 km/h (0 Bft)
08.08.2010 09:20 22,6 C 16,1 C 1,2 UV-I 0,6 C 64 % 94 % 17 % 1018,6 hPa 0,0 l/m 2,0 km/h (1 Bft) 0 min 2 min 12,2 km/h (2 Bft)
08.08.2010 09:22 22,5 C 16,2 C 0,8 UV-I 0,5 C 64 % 94 % 14 % 1018,6 hPa 0,0 l/m 2,0 km/h (1 Bft) 0 min 2 min 4,2 km/h (1 Bft)
08.08.2010 09:24 22,5 C 16,3 C 0,8 UV-I 0,4 C 64 % 94 % 11 % 1018,6 hPa 0,0 l/m 2,0 km/h (1 Bft) 0 min 2 min 4,2 km/h (1 Bft)
08.08.2010 09:26 22,6 C 16,2 C 0,8 UV-I 0,3 C 64 % 94 % 9 % 1018,6 hPa 0,2 l/m 3,2 km/h (1 Bft) 0 min 2 min 6,8 km/h (2 Bft)
08.08.2010 09:28 22,5 C 16,2 C 0,7 UV-I 0,3 C 64 % 94 % 9 % 1018,6 hPa 0,0 l/m 3,2 km/h (1 Bft) 0 min 2 min 6,8 km/h (2 Bft)
08.08.2010 09:30 22,5 C 16,3 C 0,7 UV-I 0,0 C 64 % 94 % 0 % 1018,6 hPa 0,0 l/m 3,2 km/h (1 Bft) 0 min 2 min 3,5 km/h (1 Bft)
08.08.2010 09:32 22,5 C 16,3 C 0,7 UV-I 0,0 C 64 % 94 % 0 % 1018,6 hPa 0,0 l/m 3,2 km/h (1 Bft) 0 min 2 min 3,5 km/h (1 Bft)
08.08.2010 09:34 22,5 C 16,3 C 0,7 UV-I 0,0 C 64 % 94 % 0 % 1018,6 hPa 0,0 l/m 2,4 km/h (1 Bft) 0 min 2 min 0,0 km/h (0 Bft)
08.08.2010 09:36 22,5 C 16,3 C 0,7 UV-I 0,0 C 64 % 94 % 0 % 1018,6 hPa 0,0 l/m 2,4 km/h (1 Bft) 0 min 2 min 0,0 km/h (0 Bft)
08.08.2010 09:38 22,5 C 16,3 C 1,1 UV-I 0,0 C 64 % 94 % 0 % 1018,6 hPa 0,0 l/m 1,6 km/h (1 Bft) 0 min 2 min 3,9 km/h (1 Bft)
08.08.2010 09:40 22,5 C 16,3 C 1,1 UV-I 0,0 C 64 % 94 % 0 % 1018,6 hPa 0,0 l/m 2,4 km/h (1 Bft) 0 min 0 min 3,2 km/h (1 Bft)
08.08.2010 09:42 22,5 C 16,3 C 1,4 UV-I 0,0 C 64 % 94 % 0 % 1018,6 hPa 0,0 l/m 2,4 km/h (1 Bft) 0 min 0 min 0,0 km/h (0 Bft)
08.08.2010 09:44 22,5 C 16,3 C 1,4 UV-I 0,1 C 64 % 94 % 3 % 1018,6 hPa 0,0 l/m 3,2 km/h (1 Bft) 0 min 2 min 6,8 km/h (2 Bft)
08.08.2010 09:46 22,5 C 16,3 C 1,4 UV-I 0,1 C 64 % 94 % 3 % 1018,6 hPa 0,0 l/m 3,2 km/h (1 Bft) 0 min 2 min 0,0 km/h (0 Bft)
08.08.2010 09:48 22,5 C 16,3 C 1,2 UV-I 0,2 C 64 % 94 % 6 % 1018,6 hPa 0,1 l/m 3,2 km/h (1 Bft) 0 min 2 min 5,5 km/h (1 Bft)
08.08.2010 09:50 22,5 C 16,3 C 1,2 UV-I 0,2 C 64 % 94 % 6 % 1018,6 hPa 0,0 l/m 3,2 km/h (1 Bft) 0 min 2 min 0,0 km/h (0 Bft)
08.08.2010 09:52 22,6 C 16,3 C 1,2 UV-I 0,1 C 64 % 94 % 3 % 1018,6 hPa 0,2 l/m 3,2 km/h (1 Bft) 0 min 2 min 4,5 km/h (1 Bft)
08.08.2010 09:54 22,6 C 16,3 C 1,2 UV-I 0,0 C 64 % 94 % 0 % 1018,6 hPa 0,0 l/m 2,8 km/h (1 Bft) 0 min 2 min 0,0 km/h (0 Bft)
08.08.2010 09:56 22,5 C 16,3 C 1,2 UV-I 0,0 C 64 % 94 % 0 % 1018,6 hPa 0,1 l/m 2,0 km/h (1 Bft) 0 min 2 min 4,8 km/h (1 Bft)
08.08.2010 09:58 22,6 C 16,3 C 1,5 UV-I 0,0 C 64 % 94 % 0 % 1018,6 hPa 0,0 l/m 2,8 km/h (1 Bft) 0 min 2 min 3,2 km/h (1 Bft)
08.08.2010 10:00 22,5 C 16,4 C 1,5 UV-I 0,0 C 64 % 94 % 0 % 1018,6 hPa 0,1 l/m 2,8 km/h (1 Bft) 0 min 2 min 3,9 km/h (1 Bft)
08.08.2010 10:02 22,6 C 16,4 C 1,5 UV-I 0,0 C 64 % 94 % 0 % 1018,6 hPa 0,2 l/m 2,4 km/h (1 Bft) 0 min 2 min 0,0 km/h (0 Bft)
08.08.2010 10:04 22,6 C 16,4 C 1,5 UV-I 0,0 C 64 % 94 % 0 % 1018,6 hPa 0,1 l/m 2,4 km/h (1 Bft) 0 min 2 min 3,2 km/h (1 Bft)
08.08.2010 10:06 22,6 C 16,4 C 1,5 UV-I 0,1 C 64 % 94 % 3 % 1018,6 hPa 0,0 l/m 1,6 km/h (1 Bft) 0 min 2 min 0,0 km/h (0 Bft)
08.08.2010 10:08 22,6 C 16,5 C 1,5 UV-I 0,1 C 64 % 94 % 3 % 1018,6 hPa 0,0 l/m 1,2 km/h (1 Bft) 0 min 2 min 0,0 km/h (0 Bft)
08.08.2010 10:10 22,6 C 16,4 C 1,5 UV-I 0,2 C 64 % 94 % 6 % 1018,5 hPa 0,0 l/m 1,2 km/h (1 Bft) 0 min 2 min 0,0 km/h (0 Bft)
08.08.2010 10:12 22,6 C 16,5 C 1,9 UV-I 0,1 C 64 % 94 % 3 % 1018,5 hPa 0,0 l/m 0,8 km/h (0 Bft) 0 min 2 min 4,8 km/h (1 Bft)
08.08.2010 10:14 22,6 C 16,5 C 1,9 UV-I 0,2 C 64 % 94 % 6 % 1018,5 hPa 0,0 l/m 1,6 km/h (1 Bft) 0 min 2 min 4,2 km/h (1 Bft)
08.08.2010 10:16 22,6 C 16,4 C 1,9 UV-I 0,3 C 64 % 94 % 9 % 1018,5 hPa 0,0 l/m 1,6 km/h (1 Bft) 0 min 2 min 4,2 km/h (1 Bft)
08.08.2010 10:18 22,6 C 16,5 C 1,6 UV-I 0,1 C 64 % 94 % 3 % 1018,5 hPa 0,0 l/m 2,0 km/h (1 Bft) 0 min 2 min 0,0 km/h (0 Bft)
08.08.2010 10:20 22,6 C 16,4 C 1,6 UV-I 0,3 C 64 % 94 % 9 % 1018,5 hPa 0,0 l/m 2,0 km/h (1 Bft) 0 min 2 min 0,0 km/h (0 Bft)
08.08.2010 10:22 22,6 C 16,5 C 1,8 UV-I 0,2 C 64 % 94 % 6 % 1018,5 hPa 0,0 l/m 2,4 km/h (1 Bft) 0 min 0 min 3,9 km/h (1 Bft)
08.08.2010 10:24 22,6 C 16,5 C 1,8 UV-I 0,4 C 64 % 94 % 11 % 1018,5 hPa 0,0 l/m 1,2 km/h (1 Bft) 0 min 0 min 4,5 km/h (1 Bft)
08.08.2010 10:26 22,6 C 16,7 C 1,8 UV-I 0,2 C 64 % 94 % 6 % 1018,5 hPa 0,0 l/m 1,2 km/h (1 Bft) 0 min 0 min 4,5 km/h (1 Bft)
08.08.2010 10:28 22,6 C 16,7 C 1,8 UV-I 0,4 C 64 % 94 % 11 % 1018,5 hPa 0,0 l/m 0,4 km/h (0 Bft) 0 min 0 min 0,0 km/h (0 Bft)
08.08.2010 10:30 22,6 C 16,7 C 1,8 UV-I 0,5 C 64 % 94 % 14 % 1018,8 hPa 0,0 l/m 1,2 km/h (1 Bft) 0 min 0 min 6,4 km/h (2 Bft)
08.08.2010 10:34 22,7 C 16,6 C 1,6 UV-I 0,6 C 64 % 94 % 17 % 1018,8 hPa 0,0 l/m 1,2 km/h (1 Bft) 0 min 0 min 6,4 km/h (2 Bft)
08.08.2010 10:36 22,7 C 16,7 C 1,6 UV-I 0,5 C 64 % 94 % 14 % 1018,8 hPa 0,0 l/m 1,6 km/h (1 Bft) 0 min 0 min 9,3 km/h (2 Bft)
08.08.2010 10:38 22,7 C 16,5 C 2,2 UV-I 0,7 C 64 % 94 % 20 % 1018,8 hPa 0,0 l/m 2,0 km/h (1 Bft) 0 min 0 min 3,9 km/h (1 Bft)
08.08.2010 10:40 22,7 C 16,5 C 2,2 UV-I 0,7 C 64 % 94 % 20 % 1018,8 hPa 0,0 l/m 2,8 km/h (1 Bft) 0 min 0 min 5,5 km/h (1 Bft)
08.08.2010 10:42 22,7 C 16,5 C 2,9 UV-I 0,8 C 64 % 94 % 23 % 1018,8 hPa 0,0 l/m 3,6 km/h (1 Bft) 0 min 0 min 5,1 km/h (1 Bft)
08.08.2010 10:44 22,7 C 16,6 C 2,9 UV-I 0,8 C 64 % 94 % 23 % 1018,8 hPa 0,0 l/m 3,2 km/h (1 Bft) 0 min 0 min 0,0 km/h (0 Bft)
08.08.2010 10:46 22,6 C 16,6 C 2,9 UV-I 0,9 C 64 % 94 % 26 % 1018,8 hPa 0,0 l/m 3,6 km/h (1 Bft) 0 min 0 min 0,0 km/h (0 Bft)
08.08.2010 10:48 22,7 C 16,7 C 2,8 UV-I 0,9 C 64 % 94 % 26 % 1018,8 hPa 0,0 l/m 3,2 km/h (1 Bft) 0 min 0 min 5,1 km/h (1 Bft)
08.08.2010 10:50 22,7 C 16,7 C 2,8 UV-I 1,1 C 64 % 94 % 31 % 1018,9 hPa 0,0 l/m 2,0 km/h (1 Bft) 0 min 0 min 5,5 km/h (1 Bft)
08.08.2010 10:52 22,7 C 16,6 C 3,2 UV-I 1,2 C 64 % 94 % 34 % 1018,9 hPa 0,0 l/m 2,0 km/h (1 Bft) 0 min 0 min 5,5 km/h (1 Bft)
08.08.2010 10:54 22,7 C 16,6 C 3,2 UV-I 1,3 C 64 % 94 % 37 % 1018,9 hPa 0,0 l/m 2,0 km/h (1 Bft) 0 min 0 min 4,5 km/h (1 Bft)
08.08.2010 10:56 22,7 C 16,7 C 3,2 UV-I 1,3 C 64 % 94 % 37 % 1018,9 hPa 0,0 l/m 2,0 km/h (1 Bft) 0 min 0 min 3,9 km/h (1 Bft)
08.08.2010 10:58 22,7 C 16,7 C 3,9 UV-I 1,5 C 64 % 94 % 43 % 1018,9 hPa 0,0 l/m 3,2 km/h (1 Bft) 0 min 0 min 11,6 km/h (2 Bft)
08.08.2010 11:00 22,7 C 16,8 C 3,9 UV-I 1,7 C 64 % 94 % 49 % 1018,9 hPa 0,0 l/m 2,8 km/h (1 Bft) 0 min 0 min 0,0 km/h (0 Bft)
08.08.2010 11:02 22,7 C 16,8 C 5,8 UV-I 1,7 C 64 % 93 % 49 % 1018,9 hPa 0,0 l/m 2,8 km/h (1 Bft) 0 min 0 min 0,0 km/h (0 Bft)
08.08.2010 11:04 22,7 C 17,0 C 5,8 UV-I 2,3 C 64 % 93 % 66 % 1018,9 hPa 0,0 l/m 2,8 km/h (1 Bft) 0 min 0 min 7,1 km/h (2 Bft)
08.08.2010 11:06 22,7 C 17,0 C 5,8 UV-I 3,2 C 64 % 93 % 91 % 1018,9 hPa 0,0 l/m 3,2 km/h (1 Bft) 2 min 0 min 5,5 km/h (1 Bft)
08.08.2010 11:08 22,7 C 17,1 C 6,5 UV-I 3,9 C 64 % 93 % 100 % 1018,9 hPa 0,0 l/m 3,2 km/h (1 Bft) 2 min 0 min 5,5 km/h (1 Bft)
08.08.2010 11:10 22,7 C 17,2 C 6,5 UV-I 3,7 C 64 % 93 % 100 % 1019,0 hPa 0,0 l/m 3,2 km/h (1 Bft) 2 min 0 min 4,2 km/h (1 Bft)
08.08.2010 11:12 22,7 C 17,2 C 1,9 UV-I 3,7 C 64 % 93 % 100 % 1019,0 hPa 0,0 l/m 3,2 km/h (1 Bft) 2 min 0 min 0,0 km/h (0 Bft)
08.08.2010 11:14 22,7 C 17,2 C 1,9 UV-I 3,4 C 64 % 93 % 97 % 1019,0 hPa 0,0 l/m 2,8 km/h (1 Bft) 2 min 0 min 0,0 km/h (0 Bft)
08.08.2010 11:16 22,7 C 17,4 C 1,9 UV-I 2,8 C 64 % 93 % 80 % 1019,0 hPa 0,0 l/m 2,8 km/h (1 Bft) 0 min 0 min 4,5 km/h (1 Bft)
08.08.2010 11:18 22,7 C 17,5 C 4,9 UV-I 2,6 C 64 % 93 % 74 % 1019,0 hPa 0,0 l/m 3,2 km/h (1 Bft) 0 min 0 min 5,5 km/h (1 Bft)
08.08.2010 11:20 22,7 C 17,4 C 4,9 UV-I 3,0 C 64 % 93 % 86 % 1019,0 hPa 0,0 l/m 2,4 km/h (1 Bft) 2 min 0 min 3,5 km/h (1 Bft)
08.08.2010 11:22 22,8 C 17,5 C 4,9 UV-I 3,4 C 64 % 92 % 97 % 1019,0 hPa 0,0 l/m 1,6 km/h (1 Bft) 2 min 0 min 0,0 km/h (0 Bft)
08.08.2010 11:24 22,8 C 17,7 C 4,9 UV-I 3,5 C 64 % 92 % 100 % 1019,0 hPa 0,0 l/m 2,4 km/h (1 Bft) 2 min 0 min 5,5 km/h (1 Bft)
08.08.2010 11:26 22,8 C 17,7 C 4,9 UV-I 4,0 C 64 % 92 % 100 % 1019,0 hPa 0,0 l/m 2,4 km/h (1 Bft) 2 min 0 min 0,0 km/h (0 Bft)
08.08.2010 11:28 22,8 C 17,9 C 4,9 UV-I 4,4 C 64 % 93 % 100 % 1019,0 hPa 0,0 l/m 2,4 km/h (1 Bft) 2 min 0 min 0,0 km/h (0 Bft)
08.08.2010 11:30 22,8 C 17,9 C 4,9 UV-I 4,9 C 64 % 92 % 100 % 1018,8 hPa 0,0 l/m 2,0 km/h (1 Bft) 2 min 0 min 4,2 km/h (1 Bft)
08.08.2010 11:32 22,8 C 18,1 C 4,9 UV-I 4,9 C 64 % 91 % 100 % 1018,8 hPa 0,0 l/m 3,2 km/h (1 Bft) 2 min 0 min 6,1 km/h (2 Bft)
08.08.2010 11:34 22,8 C 18,0 C 4,9 UV-I 5,2 C 64 % 90 % 100 % 1018,8 hPa 0,0 l/m 3,6 km/h (1 Bft) 2 min 0 min 7,4 km/h (2 Bft)
08.08.2010 11:38 22,8 C 18,2 C 6,5 UV-I 5,0 C 64 % 90 % 100 % 1018,8 hPa 0,0 l/m 4,0 km/h (1 Bft) 2 min 0 min 7,4 km/h (2 Bft)
08.08.2010 11:40 22,8 C 18,3 C 6,5 UV-I 5,2 C 64 % 89 % 100 % 1018,8 hPa 0,0 l/m 5,2 km/h (1 Bft) 2 min 0 min 7,7 km/h (2 Bft)
08.08.2010 11:42 22,8 C 18,3 C 6,4 UV-I 5,4 C 63 % 89 % 100 % 1018,8 hPa 0,0 l/m 5,2 km/h (1 Bft) 2 min 0 min 7,4 km/h (2 Bft)
08.08.2010 11:44 22,8 C 18,3 C 6,4 UV-I 5,4 C 63 % 89 % 100 % 1018,8 hPa 0,0 l/m 5,2 km/h (1 Bft) 2 min 0 min 7,4 km/h (2 Bft)
08.08.2010 11:46 22,8 C 18,5 C 6,4 UV-I 5,5 C 63 % 89 % 100 % 1018,8 hPa 0,0 l/m 4,8 km/h (1 Bft) 2 min 0 min 12,2 km/h (2 Bft)
08.08.2010 11:48 22,8 C 18,5 C 7,3 UV-I 6,1 C 63 % 88 % 100 % 1018,8 hPa 0,0 l/m 4,4 km/h (1 Bft) 2 min 0 min 12,2 km/h (2 Bft)
08.08.2010 11:50 22,8 C 18,7 C 7,3 UV-I 5,9 C 63 % 89 % 100 % 1018,8 hPa 0,0 l/m 4,4 km/h (1 Bft) 2 min 0 min 0,0 km/h (0 Bft)
08.08.2010 11:54 22,9 C 19,1 C 9,4 UV-I 7,2 C 63 % 88 % 100 % 1018,8 hPa 0,0 l/m 3,6 km/h (1 Bft) 2 min 0 min 0,0 km/h (0 Bft)
08.08.2010 11:56 22,9 C 19,2 C 9,4 UV-I 7,4 C 63 % 87 % 100 % 1018,8 hPa 0,0 l/m 3,6 km/h (1 Bft) 2 min 0 min 3,5 km/h (1 Bft)
08.08.2010 11:58 22,9 C 19,3 C 8,3 UV-I 7,2 C 64 % 87 % 100 % 1018,8 hPa 0,0 l/m 4,0 km/h (1 Bft) 2 min 0 min 3,2 km/h (1 Bft)
08.08.2010 12:00 22,9 C 19,5 C 8,3 UV-I 7,0 C 64 % 86 % 100 % 1018,8 hPa 0,0 l/m 4,0 km/h (1 Bft) 2 min 0 min 3,2 km/h (1 Bft)
08.08.2010 12:02 23,0 C 19,6 C 8,3 UV-I 7,2 C 64 % 86 % 100 % 1018,8 hPa 0,0 l/m 5,2 km/h (1 Bft) 2 min 0 min 17,7 km/h (3 Bft)
08.08.2010 12:04 23,0 C 19,7 C 8,3 UV-I 7,3 C 64 % 85 % 100 % 1018,8 hPa 0,0 l/m 5,2 km/h (1 Bft) 2 min 0 min 17,7 km/h (3 Bft)
08.08.2010 12:06 23,0 C 19,8 C 8,3 UV-I 7,4 C 63 % 84 % 100 % 1018,8 hPa 0,0 l/m 6,8 km/h (2 Bft) 2 min 0 min 3,9 km/h (1 Bft)
08.08.2010 12:08 23,0 C 19,7 C 3,4 UV-I 7,2 C 63 % 84 % 100 % 1018,8 hPa 0,0 l/m 7,2 km/h (2 Bft) 2 min 0 min 9,0 km/h (2 Bft)
08.08.2010 12:10 23,0 C 19,7 C 3,4 UV-I 6,3 C 63 % 84 % 100 % 1019,2 hPa 0,0 l/m 7,2 km/h (2 Bft) 2 min 0 min 9,0 km/h (2 Bft)
08.08.2010 12:12 23,0 C 19,7 C 2,7 UV-I 5,7 C 63 % 83 % 100 % 1019,2 hPa 0,0 l/m 7,6 km/h (2 Bft) 2 min 0 min 5,5 km/h (1 Bft)
08.08.2010 12:16 23,0 C 19,5 C 2,7 UV-I 4,4 C 63 % 84 % 100 % 1019,2 hPa 0,0 l/m 6,4 km/h (2 Bft) 2 min 0 min 7,7 km/h (2 Bft)
08.08.2010 12:22 23,1 C 19,2 C 2,1 UV-I 2,9 C 63 % 84 % 83 % 1019,2 hPa 0,0 l/m 5,6 km/h (1 Bft) 2 min 0 min 6,4 km/h (2 Bft)
08.08.2010 12:24 23,1 C 19,2 C 2,1 UV-I 2,7 C 63 % 84 % 77 % 1019,2 hPa 0,0 l/m 5,6 km/h (1 Bft) 0 min 0 min 6,1 km/h (2 Bft)
08.08.2010 12:26 23,0 C 19,2 C 2,1 UV-I 2,5 C 63 % 85 % 71 % 1019,2 hPa 0,0 l/m 5,2 km/h (1 Bft) 0 min 0 min 5,1 km/h (1 Bft)
08.08.2010 12:28 23,1 C 19,1 C 2,3 UV-I 2,2 C 63 % 84 % 63 % 1019,2 hPa 0,0 l/m 4,8 km/h (1 Bft) 0 min 0 min 5,8 km/h (2 Bft)
08.08.2010 12:30 23,1 C 19,1 C 2,3 UV-I 2,2 C 63 % 84 % 63 % 1019,2 hPa 0,0 l/m 4,8 km/h (1 Bft) 0 min 0 min 5,1 km/h (1 Bft)
08.08.2010 12:32 23,1 C 19,1 C 3,2 UV-I 2,1 C 63 % 84 % 60 % 1019,2 hPa 0,0 l/m 6,0 km/h (2 Bft) 0 min 0 min 9,3 km/h (2 Bft)
08.08.2010 12:34 23,1 C 19,0 C 3,2 UV-I 2,2 C 63 % 84 % 63 % 1019,2 hPa 0,0 l/m 6,0 km/h (2 Bft) 0 min 0 min 19,6 km/h (3 Bft)
08.08.2010 12:38 23,1 C 19,1 C 4,2 UV-I 2,2 C 63 % 84 % 63 % 1019,2 hPa 0,0 l/m 5,6 km/h (1 Bft) 0 min 0 min 6,4 km/h (2 Bft)
08.08.2010 12:42 23,1 C 19,2 C 5,0 UV-I 2,7 C 63 % 83 % 77 % 1019,2 hPa 0,0 l/m 5,2 km/h (1 Bft) 0 min 0 min 10,6 km/h (2 Bft)
08.08.2010 12:44 23,2 C 19,5 C 5,0 UV-I 3,9 C 62 % 83 % 100 % 1019,2 hPa 0,0 l/m 5,2 km/h (1 Bft) 2 min 0 min 9,3 km/h (2 Bft)
08.08.2010 12:46 23,2 C 19,5 C 5,0 UV-I 4,4 C 62 % 83 % 100 % 1019,2 hPa 0,0 l/m 4,8 km/h (1 Bft) 2 min 0 min 9,3 km/h (2 Bft)
08.08.2010 12:50 23,2 C 19,9 C 5,3 UV-I 4,6 C 62 % 84 % 100 % 1019,2 hPa 0,0 l/m 4,8 km/h (1 Bft) 2 min 0 min 6,1 km/h (2 Bft)
08.08.2010 12:52 23,2 C 19,9 C 4,7 UV-I 4,7 C 62 % 82 % 100 % 1019,2 hPa 0,0 l/m 5,2 km/h (1 Bft) 2 min 0 min 8,0 km/h (2 Bft)
08.08.2010 12:54 23,2 C 20,0 C 4,7 UV-I 4,5 C 62 % 81 % 100 % 1019,2 hPa 0,0 l/m 5,6 km/h (1 Bft) 2 min 0 min 8,0 km/h (2 Bft)
08.08.2010 12:56 23,2 C 20,0 C 4,7 UV-I 4,5 C 62 % 81 % 100 % 1019,2 hPa 0,0 l/m 5,6 km/h (1 Bft) 2 min 0 min 8,0 km/h (2 Bft)
08.08.2010 12:58 23,2 C 20,1 C 4,6 UV-I 5,2 C 62 % 82 % 100 % 1019,2 hPa 0,0 l/m 6,8 km/h (2 Bft) 2 min 0 min 12,9 km/h (3 Bft)
08.08.2010 13:00 23,2 C 20,2 C 4,6 UV-I 5,5 C 62 % 81 % 100 % 1019,2 hPa 0,0 l/m 6,4 km/h (2 Bft) 2 min 0 min 12,9 km/h (3 Bft)
08.08.2010 13:02 23,3 C 20,3 C 4,6 UV-I 5,9 C 62 % 81 % 100 % 1019,2 hPa 0,0 l/m 6,0 km/h (2 Bft) 2 min 0 min 8,4 km/h (2 Bft)
08.08.2010 13:04 23,2 C 20,4 C 4,6 UV-I 5,8 C 62 % 80 % 100 % 1019,2 hPa 0,0 l/m 6,0 km/h (2 Bft) 2 min 0 min 20,9 km/h (4 Bft)
08.08.2010 13:06 23,3 C 20,6 C 4,6 UV-I 6,0 C 62 % 79 % 100 % 1019,2 hPa 0,0 l/m 7,2 km/h (2 Bft) 2 min 0 min 8,4 km/h (2 Bft)
08.08.2010 13:10 23,2 C 20,8 C 5,1 UV-I 6,1 C 62 % 80 % 100 % 1019,3 hPa 0,0 l/m 7,6 km/h (2 Bft) 2 min 0 min 6,1 km/h (2 Bft)
08.08.2010 13:14 23,4 C 20,9 C 5,1 UV-I 5,6 C 62 % 77 % 100 % 1019,3 hPa 0,0 l/m 7,2 km/h (2 Bft) 2 min 0 min 22,9 km/h (4 Bft)
08.08.2010 13:16 23,4 C 20,9 C 5,1 UV-I 5,6 C 62 % 77 % 100 % 1019,3 hPa 0,0 l/m 7,2 km/h (2 Bft) 2 min 0 min 14,2 km/h (3 Bft)
08.08.2010 13:18 23,4 C 21,0 C 8,1 UV-I 5,5 C 62 % 76 % 100 % 1019,3 hPa 0,0 l/m 6,4 km/h (2 Bft) 2 min 0 min 13,2 km/h (3 Bft)
08.08.2010 13:20 23,4 C 21,2 C 8,1 UV-I 6,0 C 62 % 76 % 100 % 1019,3 hPa 0,0 l/m 6,4 km/h (2 Bft) 2 min 0 min 8,7 km/h (2 Bft)
08.08.2010 13:22 23,4 C 21,3 C 9,5 UV-I 6,3 C 62 % 75 % 100 % 1019,3 hPa 0,0 l/m 6,8 km/h (2 Bft) 2 min 0 min 11,6 km/h (2 Bft)
08.08.2010 13:24 23,5 C 21,5 C 9,5 UV-I 6,5 C 62 % 75 % 100 % 1019,3 hPa 0,0 l/m 7,2 km/h (2 Bft) 2 min 0 min 11,6 km/h (2 Bft)
08.08.2010 13:26 23,5 C 21,5 C 9,5 UV-I 6,5 C 62 % 74 % 100 % 1019,3 hPa 0,0 l/m 7,2 km/h (2 Bft) 2 min 0 min 10,0 km/h (2 Bft)
08.08.2010 13:28 23,5 C 21,7 C 8,1 UV-I 6,5 C 61 % 74 % 100 % 1019,2 hPa 0,0 l/m 7,6 km/h (2 Bft) 2 min 0 min 7,4 km/h (2 Bft)
08.08.2010 13:30 23,6 C 21,6 C 8,1 UV-I 6,2 C 61 % 73 % 100 % 1019,2 hPa 0,0 l/m 8,0 km/h (2 Bft) 2 min 0 min 7,4 km/h (2 Bft)
08.08.2010 13:32 23,6 C 21,6 C 6,0 UV-I 6,2 C 61 % 73 % 100 % 1019,2 hPa 0,0 l/m 8,0 km/h (2 Bft) 2 min 0 min 3,9 km/h (1 Bft)
08.08.2010 13:34 23,6 C 21,7 C 6,0 UV-I 5,5 C 61 % 74 % 100 % 1019,2 hPa 0,0 l/m 6,4 km/h (2 Bft) 2 min 0 min 4,8 km/h (1 Bft)
08.08.2010 13:36 23,6 C 21,7 C 6,0 UV-I 5,4 C 61 % 73 % 100 % 1019,2 hPa 0,0 l/m 5,2 km/h (1 Bft) 2 min 0 min 6,1 km/h (2 Bft)
08.08.2010 13:38 23,6 C 21,7 C 9,9 UV-I 5,7 C 61 % 72 % 100 % 1019,2 hPa 0,0 l/m 5,6 km/h (1 Bft) 2 min 0 min 6,1 km/h (2 Bft)
08.08.2010 13:40 23,7 C 21,9 C 9,9 UV-I 5,9 C 61 % 71 % 100 % 1019,2 hPa 0,0 l/m 6,0 km/h (2 Bft) 2 min 0 min 10,6 km/h (2 Bft)
08.08.2010 13:42 23,7 C 21,9 C 9,7 UV-I 6,2 C 61 % 71 % 100 % 1019,2 hPa 0,0 l/m 6,4 km/h (2 Bft) 2 min 0 min 10,6 km/h (2 Bft)
08.08.2010 13:44 23,7 C 21,9 C 9,7 UV-I 6,0 C 61 % 71 % 100 % 1019,2 hPa 0,0 l/m 7,6 km/h (2 Bft) 2 min 0 min 9,3 km/h (2 Bft)
08.08.2010 13:46 23,8 C 21,9 C 9,7 UV-I 5,5 C 61 % 72 % 100 % 1019,2 hPa 0,0 l/m 7,6 km/h (2 Bft) 2 min 0 min 8,0 km/h (2 Bft)
08.08.2010 13:48 23,8 C 21,9 C 4,9 UV-I 5,0 C 60 % 72 % 100 % 1019,2 hPa 0,0 l/m 6,8 km/h (2 Bft) 2 min 0 min 8,0 km/h (2 Bft)
08.08.2010 13:52 23,8 C 21,7 C 3,4 UV-I 4,8 C 60 % 72 % 100 % 1019,2 hPa 0,0 l/m 6,4 km/h (2 Bft) 2 min 0 min 4,5 km/h (1 Bft)
08.08.2010 13:56 23,8 C 21,6 C 3,4 UV-I 3,6 C 60 % 72 % 100 % 1019,2 hPa 0,0 l/m 4,8 km/h (1 Bft) 2 min 0 min 4,2 km/h (1 Bft)
08.08.2010 13:58 23,9 C 21,5 C 3,4 UV-I 3,2 C 60 % 73 % 91 % 1019,2 hPa 0,0 l/m 4,4 km/h (1 Bft) 2 min 0 min 3,9 km/h (1 Bft)
08.08.2010 14:00 23,9 C 21,6 C 3,4 UV-I 2,4 C 60 % 72 % 69 % 1019,2 hPa 0,0 l/m 4,0 km/h (1 Bft) 0 min 0 min 6,8 km/h (2 Bft)
08.08.2010 14:02 23,9 C 21,6 C 9,4 UV-I 2,9 C 60 % 72 % 83 % 1019,2 hPa 0,0 l/m 4,4 km/h (1 Bft) 2 min 0 min 6,8 km/h (2 Bft)
08.08.2010 14:04 24,0 C 21,7 C 9,4 UV-I 3,9 C 60 % 73 % 100 % 1019,2 hPa 0,0 l/m 3,6 km/h (1 Bft) 2 min 0 min 5,1 km/h (1 Bft)
08.08.2010 14:06 24,0 C 21,8 C 9,4 UV-I 4,2 C 60 % 73 % 100 % 1019,2 hPa 0,0 l/m 3,6 km/h (1 Bft) 2 min 0 min 4,5 km/h (1 Bft)
08.08.2010 14:08 24,0 C 21,9 C 5,9 UV-I 4,4 C 60 % 70 % 100 % 1019,8 hPa 0,0 l/m 5,2 km/h (1 Bft) 2 min 0 min 5,1 km/h (1 Bft)
08.08.2010 14:10 24,1 C 21,9 C 5,9 UV-I 3,9 C 60 % 69 % 100 % 1019,8 hPa 0,0 l/m 7,2 km/h (2 Bft) 2 min 0 min 18,7 km/h (3 Bft)
08.08.2010 14:14 24,1 C 21,5 C 1,6 UV-I 3,7 C 59 % 71 % 100 % 1019,8 hPa 0,0 l/m 7,6 km/h (2 Bft) 2 min 0 min 18,7 km/h (3 Bft)
08.08.2010 14:16 24,1 C 21,2 C 1,6 UV-I 2,5 C 59 % 72 % 71 % 1019,8 hPa 0,0 l/m 10,0 km/h (2 Bft) 0 min 0 min 10,3 km/h (2 Bft)
08.08.2010 14:18 24,1 C 20,9 C 1,6 UV-I 2,3 C 59 % 73 % 66 % 1019,8 hPa 0,0 l/m 10,4 km/h (2 Bft) 0 min 0 min 11,9 km/h (2 Bft)
08.08.2010 14:20 24,1 C 20,7 C 1,6 UV-I 1,9 C 59 % 74 % 54 % 1019,8 hPa 0,0 l/m 11,2 km/h (2 Bft) 0 min 0 min 15,1 km/h (3 Bft)
08.08.2010 14:22 24,1 C 20,7 C 1,2 UV-I 1,5 C 59 % 74 % 43 % 1019,8 hPa 0,0 l/m 11,2 km/h (2 Bft) 0 min 0 min 16,7 km/h (3 Bft)
08.08.2010 14:24 24,1 C 20,5 C 1,2 UV-I 1,2 C 59 % 74 % 34 % 1019,8 hPa 0,0 l/m 10,8 km/h (2 Bft) 0 min 0 min 16,7 km/h (3 Bft)
08.08.2010 14:26 24,2 C 20,3 C 1,2 UV-I 1,0 C 59 % 75 % 29 % 1019,8 hPa 0,0 l/m 10,0 km/h (2 Bft) 0 min 0 min 14,2 km/h (3 Bft)
08.08.2010 14:28 24,1 C 20,3 C 0,5 UV-I 0,8 C 59 % 76 % 23 % 1019,8 hPa 0,0 l/m 10,4 km/h (2 Bft) 0 min 2 min 15,4 km/h (3 Bft)
08.08.2010 14:30 24,2 C 20,1 C 0,5 UV-I 0,4 C 59 % 77 % 11 % 1019,3 hPa 0,0 l/m 11,2 km/h (2 Bft) 0 min 2 min 15,4 km/h (3 Bft)
08.08.2010 14:32 24,2 C 20,0 C 0,5 UV-I 0,0 C 59 % 77 % 0 % 1019,3 hPa 0,3 l/m 9,6 km/h (2 Bft) 0 min 2 min 12,2 km/h (2 Bft)
08.08.2010 14:34 24,2 C 19,8 C 0,5 UV-I 0,0 C 59 % 78 % 0 % 1019,3 hPa 1,3 l/m 9,2 km/h (2 Bft) 0 min 2 min 6,4 km/h (2 Bft)
08.08.2010 14:36 24,2 C 19,4 C 0,5 UV-I 0,0 C 59 % 78 % 0 % 1019,3 hPa 0,0 l/m 9,2 km/h (2 Bft) 0 min 2 min 6,4 km/h (2 Bft)
08.08.2010 14:38 24,1 C 19,3 C 0,6 UV-I 0,0 C 59 % 79 % 0 % 1019,3 hPa 0,9 l/m 6,8 km/h (2 Bft) 0 min 2 min 5,5 km/h (1 Bft)
08.08.2010 14:40 24,1 C 19,1 C 0,6 UV-I 0,0 C 59 % 80 % 0 % 1019,3 hPa 0,3 l/m 4,4 km/h (1 Bft) 0 min 2 min 5,5 km/h (1 Bft)
08.08.2010 14:42 24,1 C 18,8 C 0,8 UV-I 0,0 C 59 % 80 % 0 % 1019,3 hPa 0,0 l/m 3,6 km/h (1 Bft) 0 min 2 min 0,0 km/h (0 Bft)
08.08.2010 14:44 24,1 C 18,7 C 0,8 UV-I 0,0 C 59 % 81 % 0 % 1019,3 hPa 0,3 l/m 2,4 km/h (1 Bft) 0 min 2 min 0,0 km/h (0 Bft)
08.08.2010 14:46 24,0 C 18,4 C 0,8 UV-I 0,0 C 59 % 82 % 0 % 1019,3 hPa 0,1 l/m 1,6 km/h (1 Bft) 0 min 2 min 0,0 km/h (0 Bft)
08.08.2010 14:50 24,0 C 18,2 C 1,0 UV-I 0,0 C 59 % 82 % 0 % 1019,2 hPa 0,0 l/m 0,4 km/h (0 Bft) 0 min 2 min 0,0 km/h (0 Bft)
08.08.2010 14:52 24,0 C 18,2 C 1,5 UV-I 0,0 C 59 % 83 % 0 % 1019,2 hPa 0,0 l/m 0,4 km/h (0 Bft) 0 min 2 min 3,5 km/h (1 Bft)
08.08.2010 14:54 24,0 C 18,0 C 1,5 UV-I 0,0 C 59 % 83 % 0 % 1019,2 hPa 0,0 l/m 0,4 km/h (0 Bft) 0 min 0 min 0,0 km/h (0 Bft)
08.08.2010 14:58 24,0 C 18,0 C 1,9 UV-I 0,0 C 60 % 85 % 0 % 1019,2 hPa 0,0 l/m 0,4 km/h (0 Bft) 0 min 0 min 0,0 km/h (0 Bft)
08.08.2010 15:00 24,0 C 18,1 C 1,9 UV-I 0,0 C 59 % 85 % 0 % 1019,2 hPa 0,0 l/m 1,2 km/h (1 Bft) 0 min 0 min 5,1 km/h (1 Bft)
08.08.2010 15:02 24,0 C 18,0 C 2,6 UV-I 0,0 C 60 % 85 % 0 % 1019,2 hPa 0,0 l/m 1,2 km/h (1 Bft) 0 min 0 min 0,0 km/h (0 Bft)
08.08.2010 15:04 24,0 C 18,0 C 2,6 UV-I 0,0 C 60 % 85 % 0 % 1019,2 hPa 0,0 l/m 0,4 km/h (0 Bft) 0 min 0 min 0,0 km/h (0 Bft)
08.08.2010 15:06 24,0 C 18,0 C 2,6 UV-I 0,0 C 60 % 86 % 0 % 1019,2 hPa 0,0 l/m 0,4 km/h (0 Bft) 0 min 0 min 0,0 km/h (0 Bft)
08.08.2010 15:08 24,0 C 18,1 C 3,9 UV-I 0,2 C 60 % 87 % 6 % 1019,1 hPa 0,0 l/m 0,4 km/h (0 Bft) 0 min 0 min 0,0 km/h (0 Bft)
08.08.2010 15:10 24,0 C 18,2 C 3,9 UV-I 0,8 C 60 % 87 % 23 % 1019,1 hPa 0,0 l/m 0,4 km/h (0 Bft) 0 min 0 min 0,0 km/h (0 Bft)
08.08.2010 15:12 24,0 C 18,4 C 6,8 UV-I 1,2 C 60 % 88 % 34 % 1019,1 hPa 0,0 l/m 0,4 km/h (0 Bft) 0 min 0 min 3,2 km/h (1 Bft)
08.08.2010 15:16 24,1 C 18,6 C 6,8 UV-I 2,0 C 61 % 88 % 57 % 1019,1 hPa 0,0 l/m 0,8 km/h (0 Bft) 0 min 0 min 3,2 km/h (1 Bft)
08.08.2010 15:18 24,2 C 18,9 C 9,5 UV-I 3,5 C 61 % 89 % 100 % 1019,1 hPa 0,0 l/m 2,4 km/h (1 Bft) 2 min 0 min 12,6 km/h (3 Bft)
08.08.2010 15:20 24,2 C 19,2 C 9,5 UV-I 4,5 C 61 % 88 % 100 % 1019,1 hPa 0,0 l/m 2,8 km/h (1 Bft) 2 min 0 min 12,6 km/h (3 Bft)
08.08.2010 15:22 24,3 C 19,3 C 9,1 UV-I 5,2 C 61 % 88 % 100 % 1019,1 hPa 0,0 l/m 3,6 km/h (1 Bft) 2 min 0 min 0,0 km/h (0 Bft)
08.08.2010 15:24 24,2 C 19,5 C 9,1 UV-I 5,2 C 61 % 88 % 100 % 1019,1 hPa 0,0 l/m 3,2 km/h (1 Bft) 2 min 0 min 3,5 km/h (1 Bft)
08.08.2010 15:26 24,4 C 19,7 C 9,1 UV-I 5,2 C 60 % 88 % 100 % 1019,1 hPa 0,0 l/m 3,2 km/h (1 Bft) 2 min 0 min 3,5 km/h (1 Bft)
08.08.2010 15:30 24,4 C 19,8 C 6,3 UV-I 5,2 C 60 % 88 % 100 % 1020,1 hPa 0,0 l/m 2,8 km/h (1 Bft) 2 min 0 min 6,8 km/h (2 Bft)
08.08.2010 15:34 24,4 C 19,9 C 6,1 UV-I 5,0 C 60 % 87 % 100 % 1020,1 hPa 0,0 l/m 3,6 km/h (1 Bft) 2 min 0 min 6,8 km/h (2 Bft)
08.08.2010 15:38 24,5 C 20,1 C 7,4 UV-I 4,6 C 60 % 85 % 100 % 1020,1 hPa 0,0 l/m 4,0 km/h (1 Bft) 2 min 0 min 3,9 km/h (1 Bft)
08.08.2010 15:40 24,5 C 20,3 C 7,4 UV-I 4,6 C 60 % 85 % 100 % 1020,1 hPa 0,0 l/m 5,6 km/h (1 Bft) 2 min 0 min 4,8 km/h (1 Bft)
08.08.2010 15:42 24,6 C 20,3 C 7,4 UV-I 5,0 C 60 % 83 % 100 % 1020,1 hPa 0,0 l/m 7,6 km/h (2 Bft) 2 min 0 min 16,7 km/h (3 Bft)
08.08.2010 15:44 24,6 C 20,1 C 7,4 UV-I 4,6 C 60 % 82 % 100 % 1020,1 hPa 0,0 l/m 9,6 km/h (2 Bft) 2 min 0 min 16,7 km/h (3 Bft)
08.08.2010 15:46 24,6 C 20,0 C 7,4 UV-I 4,1 C 60 % 81 % 100 % 1020,1 hPa 0,0 l/m 10,4 km/h (2 Bft) 2 min 0 min 16,7 km/h (3 Bft)
08.08.2010 15:48 24,6 C 20,0 C 3,4 UV-I 3,5 C 60 % 82 % 100 % 1020,1 hPa 0,0 l/m 10,4 km/h (2 Bft) 2 min 0 min 12,2 km/h (2 Bft)
08.08.2010 15:50 24,6 C 19,8 C 3,4 UV-I 3,3 C 60 % 82 % 94 % 1020,4 hPa 0,0 l/m 10,4 km/h (2 Bft) 2 min 0 min 12,2 km/h (2 Bft)
08.08.2010 15:52 24,6 C 19,8 C 1,9 UV-I 2,7 C 60 % 81 % 77 % 1020,4 hPa 0,0 l/m 10,0 km/h (2 Bft) 0 min 0 min 13,2 km/h (3 Bft)
08.08.2010 15:54 24,6 C 19,6 C 1,9 UV-I 2,3 C 59 % 81 % 66 % 1020,4 hPa 0,0 l/m 10,0 km/h (2 Bft) 0 min 0 min 13,2 km/h (3 Bft)
08.08.2010 15:56 24,6 C 19,6 C 1,9 UV-I 1,9 C 59 % 80 % 54 % 1020,4 hPa 0,0 l/m 10,0 km/h (2 Bft) 0 min 0 min 10,9 km/h (2 Bft)
08.08.2010 15:58 24,6 C 19,5 C 1,7 UV-I 1,6 C 59 % 80 % 46 % 1020,4 hPa 0,0 l/m 10,8 km/h (2 Bft) 0 min 0 min 16,1 km/h (3 Bft)
08.08.2010 16:00 24,6 C 19,5 C 1,7 UV-I 1,3 C 59 % 81 % 37 % 1020,4 hPa 0,0 l/m 11,2 km/h (2 Bft) 0 min 0 min 6,8 km/h (2 Bft)
08.08.2010 16:02 24,6 C 19,5 C 2,4 UV-I 1,1 C 59 % 81 % 31 % 1020,4 hPa 0,0 l/m 11,6 km/h (2 Bft) 0 min 0 min 20,0 km/h (4 Bft)
08.08.2010 16:04 24,6 C 19,3 C 2,4 UV-I 1,3 C 59 % 81 % 37 % 1020,4 hPa 0,0 l/m 11,6 km/h (2 Bft) 0 min 0 min 20,0 km/h (4 Bft)
08.08.2010 16:06 24,6 C 19,4 C 2,4 UV-I 0,9 C 59 % 82 % 26 % 1020,4 hPa 0,0 l/m 9,2 km/h (2 Bft) 0 min 0 min 6,1 km/h (2 Bft)
08.08.2010 16:08 24,6 C 19,3 C 2,4 UV-I 1,0 C 59 % 82 % 29 % 1020,4 hPa 0,0 l/m 8,8 km/h (2 Bft) 0 min 0 min 12,2 km/h (2 Bft)
08.08.2010 16:10 24,6 C 19,3 C 2,4 UV-I 0,9 C 59 % 81 % 26 % 1020,2 hPa 0,0 l/m 7,2 km/h (2 Bft) 0 min 0 min 12,2 km/h (2 Bft)
08.08.2010 16:12 24,6 C 19,3 C 2,0 UV-I 0,8 C 59 % 82 % 23 % 1020,2 hPa 0,0 l/m 6,8 km/h (2 Bft) 0 min 0 min 8,7 km/h (2 Bft)
08.08.2010 16:14 24,6 C 19,3 C 2,0 UV-I 0,7 C 59 % 82 % 20 % 1020,2 hPa 0,0 l/m 4,4 km/h (1 Bft) 0 min 0 min 3,9 km/h (1 Bft)
08.08.2010 16:16 24,6 C 19,3 C 2,0 UV-I 0,6 C 59 % 82 % 17 % 1020,2 hPa 0,0 l/m 4,4 km/h (1 Bft) 0 min 0 min 4,8 km/h (1 Bft)
08.08.2010 16:18 24,5 C 19,2 C 1,7 UV-I 0,7 C 59 % 82 % 20 % 1020,2 hPa 0,0 l/m 5,2 km/h (1 Bft) 0 min 0 min 4,2 km/h (1 Bft)
08.08.2010 16:20 24,5 C 19,2 C 1,7 UV-I 0,6 C 59 % 80 % 17 % 1020,2 hPa 0,0 l/m 5,2 km/h (1 Bft) 0 min 0 min 17,4 km/h (3 Bft)
08.08.2010 16:24 24,5 C 19,1 C 1,9 UV-I 0,7 C 59 % 81 % 20 % 1020,2 hPa 0,0 l/m 4,8 km/h (1 Bft) 0 min 0 min 17,4 km/h (3 Bft)
08.08.2010 16:26 24,5 C 19,1 C 1,9 UV-I 0,7 C 58 % 81 % 20 % 1020,2 hPa 0,0 l/m 4,8 km/h (1 Bft) 0 min 0 min 6,8 km/h (2 Bft)
08.08.2010 16:28 24,5 C 19,1 C 1,7 UV-I 0,7 C 59 % 81 % 20 % 1020,2 hPa 0,0 l/m 4,4 km/h (1 Bft) 0 min 0 min 6,8 km/h (2 Bft)
08.08.2010 16:30 24,4 C 19,1 C 1,7 UV-I 0,8 C 58 % 82 % 23 % 1020,1 hPa 0,0 l/m 4,0 km/h (1 Bft) 0 min 0 min 5,1 km/h (1 Bft)
08.08.2010 16:33 24,4 C 19,1 C 1,9 UV-I 0,8 C 59 % 82 % 23 % 1020,1 hPa 0,0 l/m 3,6 km/h (1 Bft) 0 min 0 min 9,3 km/h (2 Bft)
08.08.2010 16:34 24,4 C 19,1 C 1,9 UV-I 0,8 C 59 % 82 % 23 % 1020,1 hPa 0,0 l/m 3,6 km/h (1 Bft) 0 min 0 min 9,3 km/h (2 Bft)
08.08.2010 16:36 24,4 C 19,1 C 1,9 UV-I 0,9 C 59 % 83 % 26 % 1020,1 hPa 0,0 l/m 3,6 km/h (1 Bft) 0 min 0 min 4,5 km/h (1 Bft)
08.08.2010 16:38 24,4 C 19,1 C 1,9 UV-I 1,0 C 59 % 83 % 29 % 1020,1 hPa 0,0 l/m 3,6 km/h (1 Bft) 0 min 0 min 5,5 km/h (1 Bft)
08.08.2010 16:40 24,4 C 19,1 C 1,9 UV-I 1,0 C 59 % 82 % 29 % 1020,1 hPa 0,0 l/m 4,4 km/h (1 Bft) 0 min 0 min 5,8 km/h (2 Bft)
08.08.2010 16:42 24,2 C 19,2 C 2,2 UV-I 0,9 C 58 % 82 % 26 % 1020,1 hPa 0,0 l/m 4,4 km/h (1 Bft) 0 min 0 min 5,8 km/h (2 Bft)
08.08.2010 16:44 24,2 C 19,2 C 2,2 UV-I 0,9 C 58 % 82 % 26 % 1020,1 hPa 0,0 l/m 3,2 km/h (1 Bft) 0 min 0 min 5,8 km/h (2 Bft)
08.08.2010 16:46 24,2 C 19,2 C 2,2 UV-I 0,9 C 58 % 82 % 26 % 1020,1 hPa 0,0 l/m 3,2 km/h (1 Bft) 0 min 0 min 5,8 km/h (2 Bft)
08.08.2010 16:48 24,3 C 19,2 C 2,3 UV-I 1,0 C 58 % 82 % 29 % 1020,1 hPa 0,0 l/m 2,8 km/h (1 Bft) 0 min 2 min 6,8 km/h (2 Bft)
08.08.2010 16:52 24,2 C 19,1 C 2,0 UV-I 0,9 C 59 % 81 % 26 % 1019,8 hPa 0,0 l/m 2,8 km/h (1 Bft) 0 min 0 min 7,1 km/h (2 Bft)
08.08.2010 16:54 24,2 C 19,1 C 2,0 UV-I 0,8 C 59 % 81 % 23 % 1019,8 hPa 0,0 l/m 3,6 km/h (1 Bft) 0 min 0 min 7,1 km/h (2 Bft)
08.08.2010 16:56 24,2 C 19,0 C 2,0 UV-I 0,8 C 59 % 82 % 23 % 1019,8 hPa 0,0 l/m 3,6 km/h (1 Bft) 0 min 0 min 3,5 km/h (1 Bft)
08.08.2010 16:58 24,2 C 19,1 C 1,5 UV-I 0,7 C 59 % 82 % 20 % 1019,8 hPa 0,0 l/m 4,0 km/h (1 Bft) 0 min 0 min 5,8 km/h (2 Bft)
08.08.2010 17:00 24,2 C 19,0 C 1,5 UV-I 0,6 C 59 % 82 % 17 % 1019,8 hPa 0,0 l/m 4,0 km/h (1 Bft) 0 min 0 min 0,0 km/h (0 Bft)
08.08.2010 17:04 24,2 C 18,9 C 1,4 UV-I 0,7 C 59 % 82 % 20 % 1019,8 hPa 0,0 l/m 3,6 km/h (1 Bft) 0 min 0 min 0,0 km/h (0 Bft)
08.08.2010 17:06 24,1 C 19,0 C 1,4 UV-I 0,6 C 59 % 82 % 17 % 1019,8 hPa 0,0 l/m 4,0 km/h (1 Bft) 0 min 0 min 8,4 km/h (2 Bft)
08.08.2010 17:08 24,1 C 18,9 C 1,5 UV-I 0,7 C 59 % 82 % 20 % 1019,8 hPa 0,0 l/m 3,6 km/h (1 Bft) 0 min 0 min 8,4 km/h (2 Bft)
08.08.2010 17:10 24,1 C 18,9 C 1,5 UV-I 0,7 C 59 % 83 % 20 % 1019,8 hPa 0,0 l/m 3,2 km/h (1 Bft) 0 min 0 min 7,1 km/h (2 Bft)
08.08.2010 17:16 24,1 C 19,1 C 1,9 UV-I 1,0 C 59 % 83 % 29 % 1019,8 hPa 0,0 l/m 2,8 km/h (1 Bft) 0 min 0 min 9,3 km/h (2 Bft)
08.08.2010 17:20 24,1 C 19,5 C 3,7 UV-I 1,0 C 59 % 83 % 29 % 1019,8 hPa 0,0 l/m 2,8 km/h (1 Bft) 0 min 0 min 9,0 km/h (2 Bft)
08.08.2010 17:22 24,2 C 19,7 C 7,1 UV-I 1,7 C 60 % 82 % 49 % 1019,8 hPa 0,0 l/m 2,8 km/h (1 Bft) 0 min 0 min 7,1 km/h (2 Bft)
08.08.2010 17:24 24,2 C 19,9 C 7,1 UV-I 3,6 C 59 % 82 % 100 % 1019,8 hPa 0,0 l/m 4,0 km/h (1 Bft) 2 min 0 min 12,9 km/h (3 Bft)
08.08.2010 17:26 24,3 C 19,9 C 7,1 UV-I 3,8 C 59 % 81 % 100 % 1019,8 hPa 0,0 l/m 5,2 km/h (1 Bft) 2 min 0 min 12,9 km/h (3 Bft)
08.08.2010 17:28 24,3 C 19,9 C 2,6 UV-I 3,6 C 59 % 81 % 100 % 1019,8 hPa 0,0 l/m 5,6 km/h (1 Bft) 2 min 0 min 5,1 km/h (1 Bft)
08.08.2010 17:30 24,2 C 19,9 C 2,6 UV-I 3,6 C 59 % 81 % 100 % 1020,9 hPa 0,0 l/m 5,6 km/h (1 Bft) 2 min 0 min 4,2 km/h (1 Bft)
08.08.2010 17:34 24,2 C 19,9 C 2,6 UV-I 2,7 C 59 % 81 % 77 % 1020,9 hPa 0,0 l/m 5,6 km/h (1 Bft) 0 min 0 min 0,0 km/h (0 Bft)
08.08.2010 17:38 24,2 C 19,7 C 0,8 UV-I 1,7 C 59 % 80 % 49 % 1020,9 hPa 0,0 l/m 4,8 km/h (1 Bft) 0 min 0 min 6,8 km/h (2 Bft)
08.08.2010 17:44 24,4 C 19,5 C 0,5 UV-I 1,1 C 59 % 80 % 31 % 1020,9 hPa 0,0 l/m 3,2 km/h (1 Bft) 0 min 0 min 4,2 km/h (1 Bft)
08.08.2010 17:46 24,2 C 19,5 C 0,5 UV-I 0,9 C 58 % 79 % 26 % 1020,9 hPa 0,0 l/m 4,0 km/h (1 Bft) 0 min 0 min 13,8 km/h (3 Bft)
08.08.2010 17:48 24,4 C 19,5 C 0,5 UV-I 0,9 C 59 % 79 % 26 % 1020,9 hPa 0,0 l/m 4,0 km/h (1 Bft) 0 min 0 min 13,8 km/h (3 Bft)
08.08.2010 17:50 24,4 C 19,4 C 0,5 UV-I 0,7 C 59 % 80 % 20 % 1020,1 hPa 0,0 l/m 3,2 km/h (1 Bft) 0 min 0 min 3,2 km/h (1 Bft)
08.08.2010 17:52 24,2 C 19,3 C 1,0 UV-I 0,6 C 58 % 80 % 17 % 1020,1 hPa 0,0 l/m 3,6 km/h (1 Bft) 0 min 0 min 0,0 km/h (0 Bft)
08.08.2010 17:54 24,3 C 19,3 C 1,0 UV-I 0,5 C 58 % 80 % 14 % 1020,1 hPa 0,0 l/m 4,4 km/h (1 Bft) 0 min 0 min 4,5 km/h (1 Bft)
08.08.2010 17:58 24,3 C 19,3 C 0,8 UV-I 0,4 C 58 % 81 % 11 % 1020,1 hPa 0,0 l/m 3,6 km/h (1 Bft) 0 min 0 min 7,4 km/h (2 Bft)
08.08.2010 18:00 24,3 C 19,2 C 0,8 UV-I 0,4 C 58 % 80 % 11 % 1020,1 hPa 0,0 l/m 3,6 km/h (1 Bft) 0 min 0 min 7,4 km/h (2 Bft)
08.08.2010 18:02 24,2 C 19,2 C 0,9 UV-I 0,4 C 58 % 81 % 11 % 1020,1 hPa 0,0 l/m 3,6 km/h (1 Bft) 0 min 0 min 4,8 km/h (1 Bft)
08.08.2010 18:06 24,2 C 19,2 C 0,9 UV-I 0,4 C 58 % 81 % 11 % 1020,1 hPa 0,0 l/m 3,6 km/h (1 Bft) 0 min 0 min 0,0 km/h (0 Bft)
08.08.2010 18:08 24,2 C 19,2 C 0,7 UV-I 0,4 C 58 % 82 % 11 % 1020,1 hPa 0,0 l/m 3,2 km/h (1 Bft) 0 min 0 min 0,0 km/h (0 Bft)
08.08.2010 18:10 24,2 C 19,2 C 0,7 UV-I 0,4 C 58 % 82 % 11 % 1019,9 hPa 0,0 l/m 2,4 km/h (1 Bft) 0 min 0 min 4,2 km/h (1 Bft)
08.08.2010 18:16 24,1 C 19,3 C 0,6 UV-I 0,4 C 58 % 82 % 11 % 1019,9 hPa 0,0 l/m 1,2 km/h (1 Bft) 0 min 0 min 4,2 km/h (1 Bft)
08.08.2010 18:18 24,1 C 19,2 C 1,0 UV-I 0,6 C 58 % 82 % 17 % 1019,9 hPa 0,0 l/m 1,2 km/h (1 Bft) 0 min 0 min 0,0 km/h (0 Bft)
08.08.2010 18:24 24,1 C 19,3 C 0,7 UV-I 0,5 C 59 % 82 % 14 % 1019,9 hPa 0,0 l/m 0,4 km/h (0 Bft) 0 min 0 min 4,2 km/h (1 Bft)
08.08.2010 18:28 24,1 C 19,2 C 0,2 UV-I 0,6 C 59 % 82 % 17 % 1019,9 hPa 0,0 l/m 0,8 km/h (0 Bft) 0 min 0 min 0,0 km/h (0 Bft)
08.08.2010 18:32 24,0 C 19,2 C 0,4 UV-I 0,4 C 59 % 82 % 11 % 1019,9 hPa 0,0 l/m 0,8 km/h (0 Bft) 0 min 0 min 0,0 km/h (0 Bft)
08.08.2010 18:36 24,0 C 19,2 C 0,4 UV-I 0,4 C 59 % 82 % 11 % 1019,9 hPa 0,0 l/m 1,6 km/h (1 Bft) 0 min 0 min 11,3 km/h (2 Bft)
08.08.2010 18:38 24,0 C 19,3 C 0,6 UV-I 0,3 C 59 % 82 % 9 % 1019,9 hPa 0,0 l/m 1,6 km/h (1 Bft) 0 min 0 min 0,0 km/h (0 Bft)
08.08.2010 18:40 24,0 C 19,2 C 0,6 UV-I 0,4 C 59 % 82 % 11 % 1019,9 hPa 0,0 l/m 2,4 km/h (1 Bft) 0 min 0 min 0,0 km/h (0 Bft)
08.08.2010 18:52 23,9 C 19,4 C 1,0 UV-I 0,8 C 59 % 82 % 23 % 1019,9 hPa 0,0 l/m 2,4 km/h (1 Bft) 0 min 0 min 5,8 km/h (2 Bft)
08.08.2010 18:54 23,9 C 19,5 C 1,0 UV-I 0,8 C 59 % 82 % 23 % 1019,9 hPa 0,0 l/m 2,4 km/h (1 Bft) 0 min 0 min 0,0 km/h (0 Bft)
08.08.2010 18:56 24,0 C 19,5 C 1,0 UV-I 0,8 C 59 % 82 % 23 % 1019,9 hPa 0,0 l/m 2,4 km/h (1 Bft) 0 min 0 min 0,0 km/h (0 Bft)
08.08.2010 18:58 23,9 C 19,6 C 0,7 UV-I 0,8 C 59 % 82 % 23 % 1019,9 hPa 0,0 l/m 2,0 km/h (1 Bft) 0 min 0 min 0,0 km/h (0 Bft)
08.08.2010 19:00 23,9 C 19,6 C 0,7 UV-I 0,9 C 59 % 82 % 26 % 1019,9 hPa 0,0 l/m 2,0 km/h (1 Bft) 0 min 0 min 0,0 km/h (0 Bft)
08.08.2010 19:02 23,9 C 19,6 C 0,5 UV-I 0,9 C 60 % 82 % 26 % 1019,9 hPa 0,0 l/m 1,6 km/h (1 Bft) 0 min 0 min 3,5 km/h (1 Bft)
08.08.2010 19:04 23,9 C 19,6 C 0,5 UV-I 0,9 C 59 % 82 % 26 % 1019,9 hPa 0,0 l/m 1,6 km/h (1 Bft) 0 min 0 min 4,5 km/h (1 Bft)
08.08.2010 19:08 23,9 C 19,6 C 0,5 UV-I 0,9 C 60 % 81 % 26 % 1019,9 hPa 0,0 l/m 2,4 km/h (1 Bft) 0 min 0 min 5,5 km/h (1 Bft)
08.08.2010 19:10 23,9 C 19,6 C 0,5 UV-I 0,9 C 60 % 81 % 26 % 1020,1 hPa 0,0 l/m 2,4 km/h (1 Bft) 0 min 0 min 0,0 km/h (0 Bft)
08.08.2010 19:16 23,9 C 19,7 C 0,7 UV-I 0,8 C 60 % 81 % 23 % 1020,1 hPa 0,0 l/m 2,0 km/h (1 Bft) 0 min 0 min 0,0 km/h (0 Bft)
08.08.2010 19:18 23,9 C 19,7 C 0,3 UV-I 0,8 C 60 % 80 % 23 % 1020,1 hPa 0,0 l/m 1,6 km/h (1 Bft) 0 min 0 min 9,0 km/h (2 Bft)
08.08.2010 19:20 23,9 C 19,7 C 0,3 UV-I 0,7 C 60 % 80 % 20 % 1020,1 hPa 0,0 l/m 2,0 km/h (1 Bft) 0 min 0 min 0,0 km/h (0 Bft)
08.08.2010 19:22 23,9 C 19,7 C 0,4 UV-I 0,6 C 60 % 80 % 17 % 1020,1 hPa 0,0 l/m 2,0 km/h (1 Bft) 0 min 0 min 0,0 km/h (0 Bft)
08.08.2010 19:24 23,9 C 19,7 C 0,4 UV-I 0,6 C 60 % 79 % 17 % 1020,1 hPa 0,0 l/m 2,8 km/h (1 Bft) 0 min 0 min 4,2 km/h (1 Bft)
08.08.2010 19:26 23,9 C 19,7 C 0,4 UV-I 0,5 C 59 % 79 % 14 % 1020,1 hPa 0,0 l/m 2,8 km/h (1 Bft) 0 min 0 min 4,2 km/h (1 Bft)
08.08.2010 19:34 23,9 C 19,6 C 0,5 UV-I 0,5 C 59 % 77 % 14 % 1020,2 hPa 0,0 l/m 3,6 km/h (1 Bft) 0 min 0 min 12,9 km/h (3 Bft)
08.08.2010 19:37 23,8 C 19,6 C 0,5 UV-I 0,3 C 59 % 77 % 9 % 1020,2 hPa 0,0 l/m 4,8 km/h (1 Bft) 0 min 0 min 6,8 km/h (2 Bft)
08.08.2010 19:42 23,8 C 19,6 C 0,4 UV-I 0,2 C 59 % 76 % 6 % 1020,2 hPa 0,0 l/m 6,0 km/h (2 Bft) 0 min 0 min 0,0 km/h (0 Bft)
08.08.2010 19:47 23,8 C 19,6 C 0,4 UV-I 0,0 C 59 % 77 % 0 % 1020,2 hPa 0,0 l/m 4,0 km/h (1 Bft) 0 min 0 min 0,0 km/h (0 Bft)
08.08.2010 19:52 23,8 C 19,5 C 0,0 UV-I 0,0 C 59 % 77 % 0 % 1020,1 hPa 0,0 l/m 1,6 km/h (1 Bft) 0 min 0 min 5,5 km/h (1 Bft)
08.08.2010 19:57 23,8 C 19,5 C 0,0 UV-I 0,0 C 59 % 77 % 0 % 1020,1 hPa 0,0 l/m 2,8 km/h (1 Bft) 0 min 0 min 3,9 km/h (1 Bft)
08.08.2010 20:02 23,7 C 19,3 C 0,0 UV-I 0,0 C 59 % 78 % 0 % 1020,1 hPa 0,0 l/m 4,4 km/h (1 Bft) 0 min 2 min 6,8 km/h (2 Bft)
08.08.2010 20:07 23,7 C 19,2 C 0,0 UV-I 0,0 C 59 % 79 % 0 % 1020,1 hPa 0,0 l/m 3,2 km/h (1 Bft) 0 min 2 min 0,0 km/h (0 Bft)
08.08.2010 20:12 23,7 C 19,1 C 0,0 UV-I 0,0 C 59 % 80 % 0 % 1020,1 hPa 0,0 l/m 2,4 km/h (1 Bft) 0 min 0 min 9,3 km/h (2 Bft)
08.08.2010 20:17 23,6 C 18,9 C 0,0 UV-I 0,0 C 59 % 81 % 0 % 1020,1 hPa 0,0 l/m 1,2 km/h (1 Bft) 0 min 0 min 0,0 km/h (0 Bft)
08.08.2010 20:18 23,6 C 18,8 C 0,0 UV-I 0,0 C 59 % 81 % 0 % 1020,1 hPa 0,0 l/m 1,2 km/h (1 Bft) 0 min 0 min 0,0 km/h (0 Bft)
08.08.2010 20:20 23,6 C 18,8 C 0,0 UV-I 0,0 C 60 % 82 % 0 % 1020,1 hPa 0,0 l/m 1,2 km/h (1 Bft) 0 min 0 min 0,0 km/h (0 Bft)
08.08.2010 20:22 23,6 C 18,7 C 0,0 UV-I 0,0 C 60 % 82 % 0 % 1020,1 hPa 0,0 l/m 0,8 km/h (0 Bft) 0 min 0 min 0,0 km/h (0 Bft)
08.08.2010 20:24 23,6 C 18,8 C 0,0 UV-I 0,0 C 60 % 82 % 0 % 1020,1 hPa 0,0 l/m 0,0 km/h (0 Bft) 0 min 0 min 0,0 km/h (0 Bft)
08.08.2010 20:26 23,6 C 18,7 C 0,0 UV-I 0,0 C 60 % 82 % 0 % 1020,1 hPa 0,0 l/m 0,0 km/h (0 Bft) 0 min 0 min 0,0 km/h (0 Bft)
08.08.2010 20:28 23,6 C 18,6 C 0,0 UV-I 0,0 C 60 % 82 % 0 % 1020,1 hPa 0,0 l/m 0,0 km/h (0 Bft) 0 min 0 min 0,0 km/h (0 Bft)
08.08.2010 20:30 23,6 C 18,6 C 0,0 UV-I 0,0 C 60 % 83 % 0 % 1020,2 hPa 0,0 l/m 0,0 km/h (0 Bft) 0 min 0 min 3,2 km/h (1 Bft)
08.08.2010 20:32 23,6 C 18,5 C 0,0 UV-I 0,0 C 60 % 83 % 0 % 1020,2 hPa 0,0 l/m 0,0 km/h (0 Bft) 0 min 0 min 3,2 km/h (1 Bft)
08.08.2010 20:34 23,5 C 18,5 C 0,0 UV-I 0,0 C 60 % 83 % 0 % 1020,2 hPa 0,0 l/m 0,4 km/h (0 Bft) 0 min 0 min 0,0 km/h (0 Bft)
08.08.2010 20:36 23,6 C 18,5 C 0,0 UV-I 0,0 C 60 % 83 % 0 % 1020,2 hPa 0,0 l/m 0,4 km/h (0 Bft) 0 min 0 min 0,0 km/h (0 Bft)
08.08.2010 20:38 23,5 C 18,5 C 0,0 UV-I 0,0 C 60 % 84 % 0 % 1020,2 hPa 0,0 l/m 0,4 km/h (0 Bft) 0 min 0 min 0,0 km/h (0 Bft)
08.08.2010 20:40 23,5 C 18,5 C 0,0 UV-I 0,0 C 60 % 84 % 0 % 1020,2 hPa 0,0 l/m 0,4 km/h (0 Bft) 0 min 0 min 0,0 km/h (0 Bft)
08.08.2010 20:42 23,5 C 18,4 C 0,0 UV-I 0,0 C 60 % 84 % 0 % 1020,2 hPa 0,0 l/m 0,4 km/h (0 Bft) 0 min 0 min 0,0 km/h (0 Bft)
08.08.2010 20:44 23,5 C 18,4 C 0,0 UV-I 0,0 C 60 % 84 % 0 % 1020,2 hPa 0,0 l/m 0,4 km/h (0 Bft) 0 min 0 min 0,0 km/h (0 Bft)
08.08.2010 20:46 23,5 C 18,5 C 0,0 UV-I 0,0 C 60 % 84 % 0 % 1020,2 hPa 0,0 l/m 0,0 km/h (0 Bft) 0 min 0 min 3,5 km/h (1 Bft)
08.08.2010 20:48 23,5 C 18,4 C 0,0 UV-I 0,0 C 60 % 84 % 0 % 1020,2 hPa 0,0 l/m 0,4 km/h (0 Bft) 0 min 0 min 3,5 km/h (1 Bft)
08.08.2010 20:50 23,5 C 18,3 C 0,0 UV-I 0,0 C 61 % 84 % 0 % 1020,4 hPa 0,0 l/m 0,4 km/h (0 Bft) 0 min 0 min 0,0 km/h (0 Bft)
08.08.2010 20:52 23,5 C 18,3 C 0,0 UV-I 0,0 C 61 % 84 % 0 % 1020,4 hPa 0,0 l/m 0,4 km/h (0 Bft) 0 min 0 min 0,0 km/h (0 Bft)
08.08.2010 20:54 23,4 C 18,3 C 0,0 UV-I 0,0 C 61 % 84 % 0 % 1020,4 hPa 0,0 l/m 0,4 km/h (0 Bft) 0 min 0 min 0,0 km/h (0 Bft)
08.08.2010 20:56 23,4 C 18,2 C 0,0 UV-I 0,0 C 61 % 84 % 0 % 1020,4 hPa 0,0 l/m 0,4 km/h (0 Bft) 0 min 0 min 0,0 km/h (0 Bft)
08.08.2010 20:58 23,4 C 18,2 C 0,0 UV-I 0,0 C 61 % 84 % 0 % 1020,4 hPa 0,0 l/m 0,4 km/h (0 Bft) 0 min 0 min 0,0 km/h (0 Bft)
08.08.2010 21:00 23,4 C 18,3 C 0,0 UV-I 0,0 C 61 % 84 % 0 % 1020,4 hPa 0,0 l/m 0,0 km/h (0 Bft) 0 min 0 min 0,0 km/h (0 Bft)
08.08.2010 21:02 23,4 C 18,3 C 0,0 UV-I 0,0 C 61 % 84 % 0 % 1020,4 hPa 0,0 l/m 0,0 km/h (0 Bft) 0 min 0 min 0,0 km/h (0 Bft)
08.08.2010 21:04 23,4 C 18,3 C 0,0 UV-I 0,0 C 61 % 85 % 0 % 1020,4 hPa 0,0 l/m 0,0 km/h (0 Bft) 0 min 0 min 0,0 km/h (0 Bft)
08.08.2010 21:06 23,4 C 18,1 C 0,0 UV-I 0,0 C 61 % 85 % 0 % 1020,4 hPa 0,0 l/m 0,0 km/h (0 Bft) 0 min 0 min 0,0 km/h (0 Bft)
08.08.2010 21:08 23,4 C 18,1 C 0,0 UV-I 0,0 C 61 % 85 % 0 % 1020,4 hPa 0,0 l/m 0,0 km/h (0 Bft) 0 min 0 min 0,0 km/h (0 Bft)
08.08.2010 21:10 23,4 C 18,0 C 0,0 UV-I 0,0 C 61 % 85 % 0 % 1020,6 hPa 0,0 l/m 0,0 km/h (0 Bft) 0 min 0 min 0,0 km/h (0 Bft)
08.08.2010 21:12 23,4 C 18,0 C 0,0 UV-I 0,0 C 61 % 85 % 0 % 1020,6 hPa 0,0 l/m 0,0 km/h (0 Bft) 0 min 0 min 0,0 km/h (0 Bft)
08.08.2010 21:14 23,4 C 18,0 C 0,0 UV-I 0,0 C 61 % 85 % 0 % 1020,6 hPa 0,0 l/m 0,0 km/h (0 Bft) 0 min 0 min 0,0 km/h (0 Bft)
08.08.2010 21:16 23,4 C 17,9 C 0,0 UV-I 0,0 C 61 % 85 % 0 % 1020,6 hPa 0,0 l/m 0,0 km/h (0 Bft) 0 min 0 min 0,0 km/h (0 Bft)
08.08.2010 21:18 23,4 C 17,9 C 0,0 UV-I 0,0 C 61 % 85 % 0 % 1020,6 hPa 0,0 l/m 0,0 km/h (0 Bft) 0 min 0 min 0,0 km/h (0 Bft)
08.08.2010 21:20 23,4 C 17,8 C 0,0 UV-I 0,0 C 61 % 86 % 0 % 1020,6 hPa 0,0 l/m 0,0 km/h (0 Bft) 0 min 0 min 0,0 km/h (0 Bft)
08.08.2010 21:22 23,4 C 17,9 C 0,0 UV-I 0,0 C 61 % 86 % 0 % 1020,6 hPa 0,0 l/m 0,0 km/h (0 Bft) 0 min 0 min 0,0 km/h (0 Bft)
08.08.2010 21:24 23,4 C 17,8 C 0,0 UV-I 0,0 C 61 % 86 % 0 % 1020,6 hPa 0,0 l/m 0,0 km/h (0 Bft) 0 min 0 min 0,0 km/h (0 Bft)
08.08.2010 21:26 23,2 C 17,7 C 0,0 UV-I 0,0 C 61 % 86 % 0 % 1020,6 hPa 0,0 l/m 0,0 km/h (0 Bft) 0 min 0 min 0,0 km/h (0 Bft)
08.08.2010 21:28 23,2 C 17,7 C 0,0 UV-I 0,0 C 61 % 87 % 0 % 1020,6 hPa 0,0 l/m 0,4 km/h (0 Bft) 0 min 0 min 3,2 km/h (1 Bft)
08.08.2010 21:30 23,2 C 17,7 C 0,0 UV-I 0,0 C 61 % 87 % 0 % 1020,7 hPa 0,0 l/m 0,4 km/h (0 Bft) 0 min 0 min 3,2 km/h (1 Bft)
08.08.2010 21:32 23,2 C 17,7 C 0,0 UV-I 0,0 C 61 % 87 % 0 % 1020,7 hPa 0,0 l/m 0,4 km/h (0 Bft) 0 min 0 min 0,0 km/h (0 Bft)
08.08.2010 21:34 23,2 C 17,6 C 0,0 UV-I 0,0 C 62 % 86 % 0 % 1020,7 hPa 0,0 l/m 0,4 km/h (0 Bft) 0 min 0 min 0,0 km/h (0 Bft)
08.08.2010 21:36 23,2 C 17,6 C 0,0 UV-I 0,0 C 62 % 86 % 0 % 1020,7 hPa 0,0 l/m 0,4 km/h (0 Bft) 0 min 0 min 0,0 km/h (0 Bft)
08.08.2010 21:38 23,3 C 17,7 C 0,0 UV-I 0,0 C 62 % 87 % 0 % 1020,7 hPa 0,0 l/m 0,0 km/h (0 Bft) 0 min 0 min 0,0 km/h (0 Bft)
08.08.2010 21:40 23,3 C 17,6 C 0,0 UV-I 0,0 C 62 % 86 % 0 % 1020,7 hPa 0,0 l/m 0,0 km/h (0 Bft) 0 min 0 min 0,0 km/h (0 Bft)
08.08.2010 21:42 23,3 C 17,6 C 0,0 UV-I 0,0 C 62 % 86 % 0 % 1020,7 hPa 0,0 l/m 0,0 km/h (0 Bft) 0 min 0 min 0,0 km/h (0 Bft)
08.08.2010 21:44 23,2 C 17,6 C 0,0 UV-I 0,0 C 62 % 86 % 0 % 1020,7 hPa 0,0 l/m 0,0 km/h (0 Bft) 0 min 0 min 0,0 km/h (0 Bft)
08.08.2010 21:46 23,2 C 17,5 C 0,0 UV-I 0,0 C 62 % 87 % 0 % 1020,7 hPa 0,0 l/m 0,0 km/h (0 Bft) 0 min 0 min 0,0 km/h (0 Bft)
08.08.2010 21:48 23,2 C 17,5 C 0,0 UV-I 0,0 C 62 % 87 % 0 % 1020,8 hPa 0,0 l/m 0,0 km/h (0 Bft) 0 min 0 min 0,0 km/h (0 Bft)
08.08.2010 21:50 23,2 C 17,5 C 0,0 UV-I 0,0 C 62 % 87 % 0 % 1020,8 hPa 0,0 l/m 0,0 km/h (0 Bft) 0 min 0 min 0,0 km/h (0 Bft)
08.08.2010 21:52 23,2 C 17,4 C 0,0 UV-I 0,0 C 62 % 87 % 0 % 1020,8 hPa 0,0 l/m 0,0 km/h (0 Bft) 0 min 0 min 0,0 km/h (0 Bft)
08.08.2010 21:54 23,2 C 17,5 C 0,0 UV-I 0,0 C 62 % 87 % 0 % 1020,8 hPa 0,0 l/m 0,0 km/h (0 Bft) 0 min 0 min 0,0 km/h (0 Bft)
08.08.2010 21:56 23,2 C 17,5 C 0,0 UV-I 0,0 C 62 % 87 % 0 % 1020,8 hPa 0,0 l/m 0,0 km/h (0 Bft) 0 min 0 min 0,0 km/h (0 Bft)
08.08.2010 21:58 23,2 C 17,5 C 0,0 UV-I 0,0 C 62 % 87 % 0 % 1020,8 hPa 0,0 l/m 0,0 km/h (0 Bft) 0 min 0 min 0,0 km/h (0 Bft)
08.08.2010 22:00 23,2 C 17,4 C 0,0 UV-I 0,0 C 62 % 87 % 0 % 1020,8 hPa 0,0 l/m 0,0 km/h (0 Bft) 0 min 0 min 0,0 km/h (0 Bft)
08.08.2010 22:02 23,2 C 17,4 C 0,0 UV-I 0,0 C 62 % 87 % 0 % 1020,8 hPa 0,0 l/m 0,0 km/h (0 Bft) 0 min 0 min 0,0 km/h (0 Bft)
08.08.2010 22:04 23,2 C 17,3 C 0,0 UV-I 0,0 C 62 % 87 % 0 % 1020,8 hPa 0,0 l/m 0,0 km/h (0 Bft) 0 min 0 min 0,0 km/h (0 Bft)
08.08.2010 22:06 23,2 C 17,3 C 0,0 UV-I 0,0 C 62 % 87 % 0 % 1020,8 hPa 0,0 l/m 0,0 km/h (0 Bft) 0 min 0 min 0,0 km/h (0 Bft)
08.08.2010 22:08 23,2 C 17,3 C 0,0 UV-I 0,0 C 62 % 87 % 0 % 1020,8 hPa 0,0 l/m 0,0 km/h (0 Bft) 0 min 0 min 0,0 km/h (0 Bft)
08.08.2010 22:10 23,2 C 17,3 C 0,0 UV-I 0,0 C 62 % 87 % 0 % 1020,8 hPa 0,0 l/m 0,0 km/h (0 Bft) 0 min 0 min 0,0 km/h (0 Bft)
08.08.2010 22:12 23,1 C 17,3 C 0,0 UV-I 0,0 C 62 % 88 % 0 % 1020,8 hPa 0,0 l/m 0,0 km/h (0 Bft) 0 min 0 min 0,0 km/h (0 Bft)
08.08.2010 22:14 23,1 C 17,3 C 0,0 UV-I 0,0 C 62 % 88 % 0 % 1020,8 hPa 0,0 l/m 0,4 km/h (0 Bft) 0 min 0 min 3,5 km/h (1 Bft)
08.08.2010 22:16 23,2 C 17,3 C 0,0 UV-I 0,0 C 62 % 88 % 0 % 1020,8 hPa 0,0 l/m 0,4 km/h (0 Bft) 0 min 0 min 0,0 km/h (0 Bft)
08.08.2010 22:18 23,1 C 17,3 C 0,0 UV-I 0,0 C 62 % 88 % 0 % 1020,8 hPa 0,0 l/m 0,4 km/h (0 Bft) 0 min 0 min 0,0 km/h (0 Bft)
08.08.2010 22:22 23,1 C 17,3 C 0,0 UV-I 0,0 C 62 % 88 % 0 % 1020,8 hPa 0,0 l/m 0,4 km/h (0 Bft) 0 min 0 min 0,0 km/h (0 Bft)
08.08.2010 22:24 23,1 C 17,4 C 0,0 UV-I 0,0 C 62 % 88 % 0 % 1020,8 hPa 0,0 l/m 0,4 km/h (0 Bft) 0 min 0 min 0,0 km/h (0 Bft)
08.08.2010 22:26 23,1 C 17,3 C 0,0 UV-I 0,0 C 62 % 88 % 0 % 1020,8 hPa 0,0 l/m 0,0 km/h (0 Bft) 0 min 0 min 0,0 km/h (0 Bft)
08.08.2010 22:28 23,1 C 17,3 C 0,0 UV-I 0,0 C 62 % 88 % 0 % 1020,9 hPa 0,0 l/m 0,0 km/h (0 Bft) 0 min 0 min 0,0 km/h (0 Bft)
08.08.2010 22:30 23,1 C 17,4 C 0,0 UV-I 0,0 C 62 % 88 % 0 % 1020,9 hPa 0,0 l/m 0,0 km/h (0 Bft) 0 min 0 min 0,0 km/h (0 Bft)
08.08.2010 22:32 23,1 C 17,3 C 0,0 UV-I 0,0 C 62 % 88 % 0 % 1020,9 hPa 0,0 l/m 0,0 km/h (0 Bft) 0 min 0 min 0,0 km/h (0 Bft)
08.08.2010 22:34 23,1 C 17,4 C 0,0 UV-I 0,0 C 62 % 88 % 0 % 1020,9 hPa 0,0 l/m 0,0 km/h (0 Bft) 0 min 0 min 0,0 km/h (0 Bft)
08.08.2010 22:36 23,1 C 17,4 C 0,0 UV-I 0,0 C 62 % 88 % 0 % 1020,9 hPa 0,0 l/m 0,0 km/h (0 Bft) 0 min 0 min 0,0 km/h (0 Bft)
08.08.2010 22:40 23,1 C 17,3 C 0,0 UV-I 0,0 C 62 % 88 % 0 % 1020,9 hPa 0,0 l/m 0,0 km/h (0 Bft) 0 min 0 min 0,0 km/h (0 Bft)
08.08.2010 22:42 23,1 C 17,3 C 0,0 UV-I 0,0 C 62 % 88 % 0 % 1020,9 hPa 0,0 l/m 0,0 km/h (0 Bft) 0 min 0 min 0,0 km/h (0 Bft)
08.08.2010 22:44 23,1 C 17,3 C 0,0 UV-I 0,0 C 62 % 88 % 0 % 1020,9 hPa 0,0 l/m 0,0 km/h (0 Bft) 0 min 0 min 0,0 km/h (0 Bft)
08.08.2010 22:46 23,0 C 17,3 C 0,0 UV-I 0,0 C 62 % 88 % 0 % 1020,9 hPa 0,0 l/m 0,0 km/h (0 Bft) 0 min 0 min 0,0 km/h (0 Bft)
08.08.2010 22:50 23,0 C 17,3 C 0,0 UV-I 0,0 C 62 % 88 % 0 % 1021,1 hPa 0,0 l/m 0,0 km/h (0 Bft) 0 min 0 min 0,0 km/h (0 Bft)
08.08.2010 22:52 23,0 C 17,3 C 0,0 UV-I 0,0 C 62 % 88 % 0 % 1021,1 hPa 0,0 l/m 0,0 km/h (0 Bft) 0 min 0 min 0,0 km/h (0 Bft)
08.08.2010 22:54 23,0 C 17,2 C 0,0 UV-I 0,0 C 62 % 88 % 0 % 1021,1 hPa 0,0 l/m 0,0 km/h (0 Bft) 0 min 0 min 0,0 km/h (0 Bft)
08.08.2010 22:56 23,0 C 17,2 C 0,0 UV-I 0,0 C 62 % 88 % 0 % 1021,1 hPa 0,0 l/m 0,0 km/h (0 Bft) 0 min 0 min 0,0 km/h (0 Bft)
08.08.2010 23:08 23,0 C 17,3 C 0,0 UV-I 0,0 C 62 % 88 % 0 % 1021,1 hPa 0,0 l/m 0,4 km/h (0 Bft) 0 min 0 min 4,2 km/h (1 Bft)
08.08.2010 23:10 23,0 C 17,3 C 0,0 UV-I 0,0 C 62 % 88 % 0 % 1021,0 hPa 0,0 l/m 0,4 km/h (0 Bft) 0 min 0 min 0,0 km/h (0 Bft)
08.08.2010 23:14 23,0 C 17,2 C 0,0 UV-I 0,0 C 62 % 87 % 0 % 1021,0 hPa 0,0 l/m 0,4 km/h (0 Bft) 0 min 0 min 0,0 km/h (0 Bft)
08.08.2010 23:16 23,0 C 17,1 C 0,0 UV-I 0,0 C 62 % 87 % 0 % 1021,0 hPa 0,0 l/m 0,4 km/h (0 Bft) 0 min 0 min 0,0 km/h (0 Bft)
08.08.2010 23:18 23,0 C 17,1 C 0,0 UV-I 0,0 C 62 % 87 % 0 % 1021,0 hPa 0,0 l/m 0,0 km/h (0 Bft) 0 min 0 min 0,0 km/h (0 Bft)
08.08.2010 23:20 23,0 C 17,1 C 0,0 UV-I 0,0 C 62 % 87 % 0 % 1021,0 hPa 0,0 l/m 0,0 km/h (0 Bft) 0 min 0 min 0,0 km/h (0 Bft)
08.08.2010 23:22 22,9 C 17,0 C 0,0 UV-I 0,0 C 62 % 87 % 0 % 1021,0 hPa 0,0 l/m 0,0 km/h (0 Bft) 0 min 0 min 0,0 km/h (0 Bft)
08.08.2010 23:24 23,0 C 17,1 C 0,0 UV-I 0,0 C 62 % 87 % 0 % 1021,0 hPa 0,0 l/m 0,0 km/h (0 Bft) 0 min 0 min 0,0 km/h (0 Bft)
08.08.2010 23:26 22,9 C 17,1 C 0,0 UV-I 0,0 C 62 % 87 % 0 % 1021,0 hPa 0,0 l/m 0,4 km/h (0 Bft) 0 min 0 min 0,0 km/h (0 Bft)
08.08.2010 23:30 22,9 C 16,9 C 0,0 UV-I 0,0 C 62 % 87 % 0 % 1021,2 hPa 0,0 l/m 0,4 km/h (0 Bft) 0 min 0 min 0,0 km/h (0 Bft)
08.08.2010 23:32 22,9 C 16,9 C 0,0 UV-I 0,0 C 62 % 87 % 0 % 1021,2 hPa 0,0 l/m 0,0 km/h (0 Bft) 0 min 0 min 0,0 km/h (0 Bft)
08.08.2010 23:34 22,9 C 16,8 C 0,0 UV-I 0,0 C 62 % 87 % 0 % 1021,2 hPa 0,0 l/m 0,0 km/h (0 Bft) 0 min 0 min 0,0 km/h (0 Bft)
08.08.2010 23:36 22,9 C 16,8 C 0,0 UV-I 0,0 C 62 % 87 % 0 % 1021,2 hPa 0,0 l/m 0,0 km/h (0 Bft) 0 min 0 min 0,0 km/h (0 Bft)
08.08.2010 23:38 22,9 C 16,9 C 0,0 UV-I 0,0 C 62 % 87 % 0 % 1021,2 hPa 0,0 l/m 0,0 km/h (0 Bft) 0 min 0 min 0,0 km/h (0 Bft)
08.08.2010 23:40 22,9 C 16,8 C 0,0 UV-I 0,0 C 62 % 87 % 0 % 1021,2 hPa 0,0 l/m 0,0 km/h (0 Bft) 0 min 0 min 0,0 km/h (0 Bft)
08.08.2010 23:42 22,9 C 16,7 C 0,0 UV-I 0,0 C 62 % 87 % 0 % 1021,2 hPa 0,0 l/m 0,0 km/h (0 Bft) 0 min 0 min 0,0 km/h (0 Bft)
08.08.2010 23:44 22,9 C 16,7 C 0,0 UV-I 0,0 C 62 % 87 % 0 % 1021,2 hPa 0,0 l/m 0,0 km/h (0 Bft) 0 min 0 min 0,0 km/h (0 Bft)
08.08.2010 23:47 22,9 C 16,7 C 0,0 UV-I 0,0 C 62 % 87 % 0 % 1021,2 hPa 0,0 l/m 0,0 km/h (0 Bft) 0 min 0 min 0,0 km/h (0 Bft)
08.08.2010 23:52 22,9 C 16,5 C 0,0 UV-I 0,0 C 62 % 87 % 0 % 1021,0 hPa 0,0 l/m 0,0 km/h (0 Bft) 0 min 0 min 0,0 km/h (0 Bft)
08.08.2010 23:53 22,9 C 16,5 C 0,0 UV-I 0,0 C 62 % 87 % 0 % 1021,0 hPa 0,0 l/m 0,0 km/h (0 Bft) 0 min 0 min 0,0 km/h (0 Bft)
08.08.2010 23:56 22,8 C 16,4 C 0,0 UV-I 0,0 C 62 % 87 % 0 % 1021,0 hPa 0,0 l/m 0,0 km/h (0 Bft) 0 min 0 min 0,0 km/h (0 Bft)
08.08.2010 23:58 22,8 C 16,4 C 0,0 UV-I 0,0 C 62 % 87 % 0 % 1021,0 hPa 0,0 l/m 0,0 km/h (0 Bft) 0 min 0 min 0,0 km/h (0 Bft)
_ Min-Zeit 08:48 09:00 00:00 00:00 00:00 14:10 00:00 06:32 - 00:00 - - 00:00
Minimum _ 22,5 C 16,0 C 0,0 UV-I 0,0 C 57 % 69 % 0 % 1017,3 hPa - 0,0 km/h (0 Bft) - - 0,0 km/h (0 Bft)
_ Max-Zeit 15:42 13:40 13:38 12:06 06:47 05:12 11:08 23:30 06:52 16:02 11:06 00:00 13:14
Maximum _ 24,6 C 21,9 C 9,9 UV-I 7,4 C 64 % 94 % 100 % 1021,2 hPa 1,7 l/m 11,6 km/h
S-SO (2 Bft)
2 min 2 min 22,9 km/h
SO (4 Bft)
Durchschnitt _ 23,3 C 18,0 C 1,4 UV-I 0,9 C 61 % 87 % 21 % 1019,2 hPa #16,7 l/m 2,1 km/h (1 Bft) #2:58 h #4:12 h 3,2 km/h (1 Bft)
© 2012 W. Hausmann